Observation data for Amarillo 7 South Southeast on 05/25/2019      Previous  Date  Next       Current Mesonet Observations  Soil Data  Daily Summary Page  Observations in Plain Language
KAM1 250500Z 11003KT 16/15 A2998 RMK A01 T01560148  RH  095%=      5-min Rain = 0
KAM1 250501Z 11003KT 16/15 A2998 RMK A01 T01550148  RH  096%=      5-min Rain = 0
KAM1 250502Z 12004KT 16/15 A2998 RMK A01 T01550148  RH  096%=      5-min Rain = 0
KAM1 250503Z 12005KT 16/15 A2998 RMK A01 T01550148  RH  096%=      5-min Rain = 0
KAM1 250504Z 12005KT 15/15 A2998 RMK A01 T01540149  RH  096%=      5-min Rain = 0
KAM1 250505Z 12005KT 15/15 A2998 RMK A01 T01540149  RH  097%=      5-min Rain = 0
KAM1 250506Z 12004KT 16/15 A2998 RMK A01 T01550149  RH  096%=      5-min Rain = 0
KAM1 250507Z 12004KT 16/15 A2998 RMK A01 T01550148  RH  096%=      5-min Rain = 0
KAM1 250508Z 12004KT 16/15 A2998 RMK A01 T01550149  RH  096%=      5-min Rain = 0
KAM1 250509Z 13004KT 16/15 A2998 RMK A01 T01550148  RH  095%=      5-min Rain = 0
KAM1 250510Z 14005KT 16/15 A2999 RMK A01 T01550147  RH  095%=      5-min Rain = 0
KAM1 250511Z 13007KT 16/15 A2999 RMK A01 T01550147  RH  095%=      5-min Rain = 0
KAM1 250512Z 13006KT 16/15 A2999 RMK A01 T01550147  RH  095%=      5-min Rain = 0
KAM1 250513Z 14006KT 16/15 A2999 RMK A01 T01560147  RH  094%=      5-min Rain = 0
KAM1 250514Z 14006KT 16/15 A2999 RMK A01 T01580148  RH  094%=      5-min Rain = 0
KAM1 250515Z 14006KT 16/15 A2999 RMK A01 T01590147  RH  093%=      5-min Rain = 0
KAM1 250516Z 14007KT 16/15 A2999 RMK A01 T01590146  RH  092%=      5-min Rain = 0
KAM1 250517Z 15008KT 16/15 A2999 RMK A01 T01600146  RH  091%=      5-min Rain = 0
KAM1 250518Z 14008KT 16/15 A2999 RMK A01 T01600145  RH  091%=      5-min Rain = 0
KAM1 250519Z 14008KT 16/14 A2999 RMK A01 T01610144  RH  090%=      5-min Rain = 0
KAM1 250520Z 14009KT 16/14 A2999 RMK A01 T01620142  RH  088%=      5-min Rain = 0
KAM1 250521Z 14009KT 16/14 A2999 RMK A01 T01630141  RH  086%=      5-min Rain = 0
KAM1 250522Z 14007KT 17/14 A2999 RMK A01 T01650140  RH  085%=      5-min Rain = 0
KAM1 250523Z 15006KT 17/14 A2999 RMK A01 T01650140  RH  085%=      5-min Rain = 0
KAM1 250524Z 14007KT 17/14 A2999 RMK A01 T01650139  RH  084%=      5-min Rain = 0
KAM1 250525Z 14007KT 17/14 A2999 RMK A01 T01650138  RH  084%=      5-min Rain = 0
KAM1 250526Z 14007KT 16/14 A2999 RMK A01 T01640137  RH  084%=      5-min Rain = 0
KAM1 250527Z 14007KT 16/14 A2999 RMK A01 T01630137  RH  084%=      5-min Rain = 0
KAM1 250528Z 13007KT 16/14 A2999 RMK A01 T01620136  RH  084%=      5-min Rain = 0
KAM1 250529Z 13008KT 16/14 A2999 RMK A01 T01610135  RH  085%=      5-min Rain = 0
KAM1 250530Z 13008KT 16/14 A2999 RMK A01 T01610136  RH  085%=      5-min Rain = 0
KAM1 250531Z 13008KT 16/14 A2999 RMK A01 T01600136  RH  085%=      5-min Rain = 0
KAM1 250532Z 13008KT 16/14 A2999 RMK A01 T01590136  RH  086%=      5-min Rain = 0
KAM1 250533Z 13008KT 16/14 A2999 RMK A01 T01580135  RH  086%=      5-min Rain = 0
KAM1 250534Z 14007KT 16/13 A2999 RMK A01 T01580134  RH  086%=      5-min Rain = 0
KAM1 250535Z 14007KT 16/13 A2999 RMK A01 T01580133  RH  085%=      5-min Rain = 0
KAM1 250536Z 14007KT 16/13 A2999 RMK A01 T01580132  RH  084%=      5-min Rain = 0
KAM1 250537Z 14007KT 16/13 A2999 RMK A01 T01580131  RH  084%=      5-min Rain = 0
KAM1 250538Z 15006KT 16/13 A2998 RMK A01 T01580130  RH  083%=      5-min Rain = 0
KAM1 250539Z 15006KT 16/13 A2999 RMK A01 T01590129  RH  083%=      5-min Rain = 0
KAM1 250540Z 15007KT 16/13 A2999 RMK A01 T01580129  RH  083%=      5-min Rain = 0
KAM1 250541Z 15008KT 16/13 A2999 RMK A01 T01590128  RH  082%=      5-min Rain = 0
KAM1 250542Z 15008KT 16/13 A2999 RMK A01 T01580127  RH  082%=      5-min Rain = 0
KAM1 250543Z 14008KT 16/13 A2999 RMK A01 T01590127  RH  081%=      5-min Rain = 0
KAM1 250544Z 14008KT 16/13 A2999 RMK A01 T01590126  RH  081%=      5-min Rain = 0
KAM1 250545Z 14007KT 16/13 A2999 RMK A01 T01590126  RH  081%=      5-min Rain = 0
KAM1 250546Z 14007KT 16/13 A2999 RMK A01 T01590127  RH  081%=      5-min Rain = 0
KAM1 250547Z 14007KT 16/13 A2999 RMK A01 T01590127  RH  081%=      5-min Rain = 0
KAM1 250548Z 14008KT 16/13 A2999 RMK A01 T01580127  RH  082%=      5-min Rain = 0
KAM1 250549Z 14008KT 16/13 A2999 RMK A01 T01570127  RH  082%=      5-min Rain = 0
KAM1 250550Z 14008KT 16/13 A2999 RMK A01 T01560126  RH  082%=      5-min Rain = 0
KAM1 250551Z 14008KT 16/13 A2999 RMK A01 T01560125  RH  082%=      5-min Rain = 0
KAM1 250552Z 15008KT 16/12 A2999 RMK A01 T01560124  RH  081%=      5-min Rain = 0
KAM1 250553Z 15008KT 16/12 A2999 RMK A01 T01570123  RH  080%=      5-min Rain = 0
KAM1 250554Z 15008KT 16/12 A2999 RMK A01 T01570123  RH  080%=      5-min Rain = 0
KAM1 250555Z 15009KT 16/12 A2999 RMK A01 T01570123  RH  080%=      5-min Rain = 0
KAM1 250556Z 15009KT 16/12 A2999 RMK A01 T01570123  RH  080%=      5-min Rain = 0
KAM1 250557Z 15009KT 16/12 A2999 RMK A01 T01570123  RH  080%=      5-min Rain = 0
KAM1 250558Z 15008KT 16/12 A2999 RMK A01 T01560122  RH  080%=      5-min Rain = 0
KAM1 250559Z 15008KT 16/12 A2999 RMK A01 T01560122  RH  080%=      5-min Rain = 0
KAM1 250600Z 15008KT 16/12 A2999 RMK A01 T01550121  RH  080%=      5-min Rain = 0
KAM1 250601Z 15008KT 15/12 A2999 RMK A01 T01540121  RH  081%=      5-min Rain = 0
KAM1 250602Z 15009KT 15/12 A2999 RMK A01 T01540122  RH  081%=      5-min Rain = 0
KAM1 250603Z 15009KT 15/12 A2999 RMK A01 T01530121  RH  082%=      5-min Rain = 0
KAM1 250604Z 16009KT 15/12 A2999 RMK A01 T01520122  RH  082%=      5-min Rain = 0
KAM1 250605Z 16009KT 15/12 A2999 RMK A01 T01520122  RH  082%=      5-min Rain = 0
KAM1 250606Z 15009KT 15/12 A2999 RMK A01 T01520121  RH  082%=      5-min Rain = 0
KAM1 250607Z 16009KT 15/12 A2999 RMK A01 T01520121  RH  082%=      5-min Rain = 0
KAM1 250608Z 16008KT 15/12 A2999 RMK A01 T01520121  RH  082%=      5-min Rain = 0
KAM1 250609Z 16008KT 15/12 A2999 RMK A01 T01520122  RH  082%=      5-min Rain = 0
KAM1 250610Z 15009KT 15/12 A2999 RMK A01 T01520122  RH  082%=      5-min Rain = 0
KAM1 250611Z 14009KT 15/12 A2999 RMK A01 T01520122  RH  083%=      5-min Rain = 0
KAM1 250612Z 14009KT 15/12 A2999 RMK A01 T01510122  RH  083%=      5-min Rain = 0
KAM1 250613Z 15009KT 15/12 A2999 RMK A01 T01520122  RH  083%=      5-min Rain = 0
KAM1 250614Z 15008KT 15/12 A2999 RMK A01 T01530123  RH  082%=      5-min Rain = 0
KAM1 250615Z 15008KT 16/12 A2999 RMK A01 T01550123  RH  081%=      5-min Rain = 0
KAM1 250616Z 14008KT 16/12 A2999 RMK A01 T01560124  RH  081%=      5-min Rain = 0
KAM1 250617Z 14007KT 16/13 A2999 RMK A01 T01560125  RH  081%=      5-min Rain = 0
KAM1 250618Z 14008KT 16/13 A2999 RMK A01 T01560125  RH  082%=      5-min Rain = 0
KAM1 250619Z 14008KT 16/13 A2999 RMK A01 T01560126  RH  082%=      5-min Rain = 0
KAM1 250620Z 13007KT 16/13 A2999 RMK A01 T01560126  RH  083%=      5-min Rain = 0
KAM1 250621Z 13007KT 16/13 A2999 RMK A01 T01560127  RH  083%=      5-min Rain = 0
KAM1 250622Z 14008KT 16/13 A2999 RMK A01 T01560128  RH  084%=      5-min Rain = 0
KAM1 250623Z 13007KT 16/13 A2999 RMK A01 T01560129  RH  084%=      5-min Rain = 0
KAM1 250624Z 14008KT 16/13 A2999 RMK A01 T01560131  RH  085%=      5-min Rain = 0
KAM1 250625Z 14008KT 16/13 A2999 RMK A01 T01560131  RH  085%=      5-min Rain = 0
KAM1 250626Z 14008KT 16/13 A2999 RMK A01 T01560132  RH  086%=      5-min Rain = 0
KAM1 250627Z 14008KT 16/13 A2999 RMK A01 T01560133  RH  086%=      5-min Rain = 0
KAM1 250628Z 14008KT 16/14 A2999 RMK A01 T01570135  RH  087%=      5-min Rain = 0
KAM1 250629Z 14009KT 16/14 A2999 RMK A01 T01570135  RH  087%=      5-min Rain = 0
KAM1 250630Z 14009KT 16/14 A2999 RMK A01 T01580135  RH  086%=      5-min Rain = 0
KAM1 250631Z 14008KT 16/14 A2999 RMK A01 T01580135  RH  086%=      5-min Rain = 0
KAM1 250632Z 14009KT 16/14 A2999 RMK A01 T01580136  RH  087%=      5-min Rain = 0
KAM1 250633Z 14009KT 16/14 A2999 RMK A01 T01580137  RH  087%=      5-min Rain = 0
KAM1 250634Z 14009KT 16/14 A2999 RMK A01 T01590137  RH  087%=      5-min Rain = 0
KAM1 250635Z 14009KT 16/14 A2999 RMK A01 T01590138  RH  087%=      5-min Rain = 0
KAM1 250636Z 14008KT 16/14 A2999 RMK A01 T01600138  RH  087%=      5-min Rain = 0
KAM1 250637Z 14008KT 16/14 A2999 RMK A01 T01610138  RH  086%=      5-min Rain = 0
KAM1 250638Z 14008KT 16/14 A2999 RMK A01 T01610138  RH  086%=      5-min Rain = 0
KAM1 250639Z 14008KT 16/14 A2999 RMK A01 T01620138  RH  085%=      5-min Rain = 0
KAM1 250640Z 14008KT 16/14 A2999 RMK A01 T01630138  RH  085%=      5-min Rain = 0
KAM1 250641Z 15008KT 16/14 A2999 RMK A01 T01640138  RH  085%=      5-min Rain = 0
KAM1 250642Z 15008KT 16/14 A2999 RMK A01 T01640138  RH  084%=      5-min Rain = 0
KAM1 250643Z 15008KT 17/14 A2999 RMK A01 T01650138  RH  084%=      5-min Rain = 0
KAM1 250644Z 15009KT 17/14 A2999 RMK A01 T01660138  RH  084%=      5-min Rain = 0
KAM1 250645Z 15009KT 17/14 A2999 RMK A01 T01660138  RH  083%=      5-min Rain = 0
KAM1 250646Z 15008KT 17/14 A2999 RMK A01 T01670138  RH  083%=      5-min Rain = 0
KAM1 250647Z 15008KT 17/14 A2999 RMK A01 T01680138  RH  083%=      5-min Rain = 0
KAM1 250648Z 15007KT 17/14 A2999 RMK A01 T01680138  RH  082%=      5-min Rain = 0
KAM1 250649Z 15007KT 17/14 A2999 RMK A01 T01690138  RH  082%=      5-min Rain = 0
KAM1 250650Z 15007KT 17/14 A2999 RMK A01 T01690138  RH  082%=      5-min Rain = 0
KAM1 250651Z 15008KT 17/14 A2999 RMK A01 T01700138  RH  081%=      5-min Rain = 0
KAM1 250652Z 15009KT 17/14 A2999 RMK A01 T01710138  RH  081%=      5-min Rain = 0
KAM1 250653Z 15008KT 17/14 A2999 RMK A01 T01720138  RH  081%=      5-min Rain = 0
KAM1 250654Z 16006KT 17/14 A2999 RMK A01 T01730139  RH  080%=      5-min Rain = 0
KAM1 250655Z 16006KT 17/14 A30 RMK A01 T01730139  RH  081%=      5-min Rain = 0
KAM1 250656Z 17006KT 17/14 A30 RMK A01 T01730139  RH  081%=      5-min Rain = 0
KAM1 250657Z 16005KT 17/14 A30 RMK A01 T01730140  RH  081%=      5-min Rain = 0
KAM1 250658Z 16006KT 17/14 A30 RMK A01 T01730140  RH  081%=      5-min Rain = 0
KAM1 250659Z 16006KT 17/14 A30 RMK A01 T01740140  RH  080%=      5-min Rain = 0
KAM1 250700Z 17006KT 17/14 A30 RMK A01 T01740140  RH  080%=      5-min Rain = 0
KAM1 250701Z 16008KT 17/14 A30 RMK A01 T01740140  RH  080%=      5-min Rain = 0
KAM1 250702Z 15007KT 18/14 A30 RMK A01 T01750139  RH  080%=      5-min Rain = 0
KAM1 250703Z 15007KT 18/14 A2999 RMK A01 T01750140  RH  080%=      5-min Rain = 0
KAM1 250704Z 15007KT 18/14 A2999 RMK A01 T01750141  RH  080%=      5-min Rain = 0
KAM1 250705Z 15009KT 18/14 A2999 RMK A01 T01750141  RH  080%=      5-min Rain = 0
KAM1 250706Z 16008KT 18/14 A2999 RMK A01 T01750142  RH  081%=      5-min Rain = 0
KAM1 250707Z 16009KT 18/14 A2999 RMK A01 T01750143  RH  081%=      5-min Rain = 0
KAM1 250708Z 16009KT 18/14 A2999 RMK A01 T01750143  RH  081%=      5-min Rain = 0
KAM1 250709Z 16011KT 18/14 A2999 RMK A01 T01760144  RH  082%=      5-min Rain = 0
KAM1 250710Z 15010KT 18/15 A2999 RMK A01 T01760145  RH  082%=      5-min Rain = 0
KAM1 250711Z 15010KT 18/15 A2999 RMK A01 T01760146  RH  082%=      5-min Rain = 0
KAM1 250712Z 15010KT 18/15 A2999 RMK A01 T01760146  RH  083%=      5-min Rain = 0
KAM1 250713Z 15011KT 18/15 A2999 RMK A01 T01760147  RH  083%=      5-min Rain = 0
KAM1 250714Z 15011KT 18/15 A2999 RMK A01 T01770148  RH  083%=      5-min Rain = 0
KAM1 250715Z 15011KT 18/15 A2999 RMK A01 T01770149  RH  084%=      5-min Rain = 0
KAM1 250716Z 15010KT 18/15 A2999 RMK A01 T01770149  RH  084%=      5-min Rain = 0
KAM1 250717Z 17009KT 18/15 A2999 RMK A01 T01770150  RH  084%=      5-min Rain = 0
KAM1 250718Z 18009KT 18/15 A2999 RMK A01 T01770151  RH  084%=      5-min Rain = 0
KAM1 250719Z 18010KT 18/15 A2999 RMK A01 T01770151  RH  085%=      5-min Rain = 0
KAM1 250720Z 17010KT 18/15 A2999 RMK A01 T01770152  RH  085%=      5-min Rain = 0
KAM1 250721Z 15010KT 18/15 A2999 RMK A01 T01780153  RH  085%=      5-min Rain = 0
KAM1 250722Z 13011KT 18/15 A2999 RMK A01 T01780153  RH  086%=      5-min Rain = 0
KAM1 250723Z 14011KT 18/15 A2998 RMK A01 T01780154  RH  086%=      5-min Rain = 0
KAM1 250724Z 13013KT 18/16 A2998 RMK A01 T01780156  RH  087%=      5-min Rain = 0
KAM1 250725Z 13015KT 18/16 A2998 RMK A01 T01780157  RH  088%=      5-min Rain = 0
KAM1 250726Z 14014KT 18/16 A2998 RMK A01 T01790160  RH  089%=      5-min Rain = 0
KAM1 250727Z 17011KT 18/16 A2999 RMK A01 T01800163  RH  089%=      5-min Rain = 0
KAM1 250728Z 22008KT 18/16 A2999 RMK A01 T01810162  RH  089%=      5-min Rain = 0
KAM1 250729Z 22007KT 18/16 A2999 RMK A01 T01810156  RH  085%=      5-min Rain = 0
KAM1 250730Z 20007KT 18/15 A2999 RMK A01 T01790154  RH  085%=      5-min Rain = 0
KAM1 250731Z 19008KT 18/15 A2999 RMK A01 T01780154  RH  086%=      5-min Rain = 0
KAM1 250732Z 19011KT 18/16 A2999 RMK A01 T01780155  RH  086%=      5-min Rain = 0
KAM1 250733Z 19012KT 18/16 A2999 RMK A01 T01780157  RH  088%=      5-min Rain = 0
KAM1 250734Z 19013KT 18/16 A2999 RMK A01 T01790160  RH  089%=      5-min Rain = 0
KAM1 250735Z 18013KT 18/16 A2999 RMK A01 T01790162  RH  090%=      5-min Rain = 0
KAM1 250736Z 18011KT 18/16 A2999 RMK A01 T01800164  RH  090%=      5-min Rain = 0
KAM1 250737Z 15011KT 18/16 A2999 RMK A01 T01800164  RH  090%=      5-min Rain = 0
KAM1 250738Z 15011KT 18/16 A2998 RMK A01 T01800164  RH  090%=      5-min Rain = 0
KAM1 250739Z 16012KT 18/17 A2999 RMK A01 T01800165  RH  091%=      5-min Rain = 0
KAM1 250740Z 18012KT 18/17 A2999 RMK A01 T01810166  RH  091%=      5-min Rain = 0
KAM1 250741Z 18013KT 18/17 A2999 RMK A01 T01810166  RH  091%=      5-min Rain = 0
KAM1 250742Z 18012KT 18/17 A2999 RMK A01 T01810166  RH  091%=      5-min Rain = 0
KAM1 250743Z 17009KT 18/17 A2999 RMK A01 T01810167  RH  091%=      5-min Rain = 0
KAM1 250744Z 17011KT 18/17 A2999 RMK A01 T01810167  RH  091%=      5-min Rain = 0
KAM1 250745Z 17011KT 18/17 A2999 RMK A01 T01810167  RH  091%=      5-min Rain = 0
KAM1 250746Z 17011KT 18/17 A2999 RMK A01 T01810167  RH  092%=      5-min Rain = 0
KAM1 250747Z 16010KT 18/17 A2999 RMK A01 T01810167  RH  092%=      5-min Rain = 0
KAM1 250748Z 16012KT 18/17 A2999 RMK A01 T01810168  RH  092%=      5-min Rain = 0
KAM1 250749Z 15012KT 18/17 A2998 RMK A01 T01810168  RH  092%=      5-min Rain = 0
KAM1 250750Z 15012KT 18/17 A2998 RMK A01 T01810168  RH  092%=      5-min Rain = 0
KAM1 250751Z 16014G19KT 18/17 A2998 RMK A01 T01820171  RH  093%=      5-min Rain = 0
KAM1 250752Z 15011G16KT 18/17 A2998 RMK A01 T01820171  RH  093%=      5-min Rain = 0
KAM1 250753Z 15014KT 18/17 A2998 RMK A01 T01820173  RH  094%=      5-min Rain = 0
KAM1 250754Z 15017KT 18/18 A2998 RMK A01 T01830175  RH  095%=      5-min Rain = 0
KAM1 250755Z 15014KT 18/18 A2998 RMK A01 T01840176  RH  095%=      5-min Rain = 0
KAM1 250756Z 15015KT 18/18 A2998 RMK A01 T01840176  RH  095%=      5-min Rain = 0
KAM1 250757Z 16013KT 18/18 A2998 RMK A01 T01840175  RH  095%=      5-min Rain = 0
KAM1 250758Z 15018KT 18/18 A2998 RMK A01 T01840176  RH  095%=      5-min Rain = 0
KAM1 250759Z 16012KT 19/18 A2998 RMK A01 T01850177  RH  095%=      5-min Rain = 0
KAM1 250800Z 16013KT 19/18 A2998 RMK A01 T01850177  RH  095%=      5-min Rain = 0
KAM1 250801Z 16014KT 19/18 A2998 RMK A01 T01850177  RH  095%=      5-min Rain = 0
KAM1 250802Z 16013KT 19/18 A2998 RMK A01 T01850178  RH  096%=      5-min Rain = 0
KAM1 250803Z 16014KT 18/18 A2998 RMK A01 T01840178  RH  096%=      5-min Rain = 0
KAM1 250804Z 15015KT 19/18 A2998 RMK A01 T01850178  RH  096%=      5-min Rain = 0
KAM1 250805Z 16013KT 19/18 A2998 RMK A01 T01850178  RH  096%=      5-min Rain = 0
KAM1 250806Z 16016KT 19/18 A2998 RMK A01 T01850179  RH  096%=      5-min Rain = 0
KAM1 250807Z 16015KT 19/18 A2998 RMK A01 T01850179  RH  096%=      5-min Rain = 0
KAM1 250808Z 15014KT 19/18 A2998 RMK A01 T01860178  RH  095%=      5-min Rain = 0
KAM1 250809Z 15013KT 19/18 A2998 RMK A01 T01860178  RH  096%=      5-min Rain = 0
KAM1 250810Z 15013G18KT 19/18 A2998 RMK A01 T01850178  RH  096%=      5-min Rain = 0
KAM1 250811Z 15014KT 18/18 A2998 RMK A01 T01840179  RH  097%=      5-min Rain = 0
KAM1 250812Z 15016KT 18/18 A2998 RMK A01 T01840180  RH  098%=      5-min Rain = 0
KAM1 250813Z 15013KT 18/18 A2998 RMK A01 T01830180  RH  098%=      5-min Rain = 0
KAM1 250814Z 15012KT 18/18 A2998 RMK A01 T01830181  RH  099%=      5-min Rain = 0
KAM1 250815Z 15014KT 18/18 A2998 RMK A01 T01830182  RH  099%=      5-min Rain = 0
KAM1 250816Z 15013KT 18/18 A2998 RMK A01 T01830181  RH  099%=      5-min Rain = 0
KAM1 250817Z 15014KT 18/18 A2997 RMK A01 T01830181  RH  099%=      5-min Rain = 0
KAM1 250818Z 15014KT 18/18 A2997 RMK A01 T01830181  RH  099%=      5-min Rain = 0
KAM1 250819Z 15013KT 18/18 A2997 RMK A01 T01830181  RH  099%=      5-min Rain = 0
KAM1 250820Z 15015KT 18/18 A2997 RMK A01 T01830182  RH  099%=      5-min Rain = 0
KAM1 250821Z 15014KT 18/18 A2997 RMK A01 T01830182  RH  099%=      5-min Rain = 0
KAM1 250822Z 15015KT 18/18 A2997 RMK A01 T01830182  RH  099%=      5-min Rain = 0
KAM1 250823Z 15011KT 18/18 A2997 RMK A01 T01830182  RH  099%=      5-min Rain = 0
KAM1 250824Z 16011KT 18/18 A2997 RMK A01 T01830182  RH  099%=      5-min Rain = 0
KAM1 250825Z 15011KT 18/18 A2997 RMK A01 T01830182  RH  100%=      5-min Rain = 0
KAM1 250826Z 15012KT 18/18 A2997 RMK A01 T01820182  RH  100%=      5-min Rain = 0
KAM1 250827Z 15012KT 18/18 A2997 RMK A01 T01820182  RH  100%=      5-min Rain = 0
KAM1 250828Z 15012KT 18/18 A2997 RMK A01 T01820182  RH  100%=      5-min Rain = 0
KAM1 250829Z 15014KT 18/18 A2997 RMK A01 T01820182  RH  100%=      5-min Rain = 0
KAM1 250830Z 16011KT 18/18 A2997 RMK A01 T01820183  RH  100%=      5-min Rain = 0
KAM1 250831Z 16012KT 18/18 A2997 RMK A01 T01830183  RH  100%=      5-min Rain = 0
KAM1 250832Z 16013KT 18/18 A2997 RMK A01 T01830183  RH  100%=      5-min Rain = 0
KAM1 250833Z 15014KT 18/18 A2997 RMK A01 T01820183  RH  100%=      5-min Rain = 0
KAM1 250834Z 16012KT 18/18 A2998 RMK A01 T01830183  RH  100%=      5-min Rain = 0
KAM1 250835Z 16012KT 18/18 A2998 RMK A01 T01820183  RH  100%=      5-min Rain = 0
KAM1 250836Z 15014KT 18/18 A2998 RMK A01 T01830183  RH  100%=      5-min Rain = 0
KAM1 250837Z 15015KT 18/18 A2997 RMK A01 T01830183  RH  100%=      5-min Rain = 0
KAM1 250838Z 15012KT 18/18 A2997 RMK A01 T01830184  RH  100%=      5-min Rain = 0
KAM1 250839Z 16013KT 18/18 A2997 RMK A01 T01830184  RH  100%=      5-min Rain = 0
KAM1 250840Z 15013KT 18/18 A2997 RMK A01 T01830184  RH  100%=      5-min Rain = 0
KAM1 250841Z 15015KT 18/18 A2997 RMK A01 T01830183  RH  100%=      5-min Rain = 0
KAM1 250842Z 16012KT 18/18 A2997 RMK A01 T01830183  RH  100%=      5-min Rain = 0
KAM1 250843Z 16013KT 18/18 A2997 RMK A01 T01830183  RH  100%=      5-min Rain = 0
KAM1 250844Z 16013KT 18/18 A2997 RMK A01 T01820183  RH  100%=      5-min Rain = 0
KAM1 250845Z 16014KT 18/18 A2997 RMK A01 T01820182  RH  100%=      5-min Rain = 0
KAM1 250846Z 16011KT 18/18 A2997 RMK A01 T01820182  RH  100%=      5-min Rain = 0
KAM1 250847Z 16012KT 18/18 A2997 RMK A01 T01820182  RH  100%=      5-min Rain = 0
KAM1 250848Z 15014KT 18/18 A2997 RMK A01 T01820182  RH  100%=      5-min Rain = 0
KAM1 250849Z 16014KT 18/18 A2997 RMK A01 T01820182  RH  100%=      5-min Rain = 0
KAM1 250850Z 16013KT 18/18 A2997 RMK A01 T01820182  RH  100%=      5-min Rain = 0
KAM1 250851Z 15014KT 18/18 A2997 RMK A01 T01820182  RH  100%=      5-min Rain = 0
KAM1 250852Z 15013KT 18/18 A2997 RMK A01 T01820182  RH  100%=      5-min Rain = 0
KAM1 250853Z 15014KT 18/18 A2997 RMK A01 T01820182  RH  100%=      5-min Rain = 0
KAM1 250854Z 15012KT 18/18 A2997 RMK A01 T01820182  RH  100%=      5-min Rain = 0
KAM1 250855Z 15013KT 18/18 A2997 RMK A01 T01810182  RH  100%=      5-min Rain = 0
KAM1 250856Z 16012KT 18/18 A2997 RMK A01 T01810181  RH  100%=      5-min Rain = 0
KAM1 250857Z 15014KT 18/18 A2997 RMK A01 T01810182  RH  100%=      5-min Rain = 0
KAM1 250858Z 15014KT 18/18 A2997 RMK A01 T01810181  RH  100%=      5-min Rain = 0
KAM1 250859Z 15015KT 18/18 A2997 RMK A01 T01810181  RH  100%=      5-min Rain = 0
KAM1 250900Z 15014KT 18/18 A2997 RMK A01 T01810181  RH  100%=      5-min Rain = 0
KAM1 250901Z 15014KT 18/18 A2997 RMK A01 T01810182  RH  100%=      5-min Rain = 0
KAM1 250902Z 15014KT 18/18 A2997 RMK A01 T01820182  RH  100%=      5-min Rain = 0
KAM1 250903Z 15011KT 18/18 A2997 RMK A01 T01820182  RH  100%=      5-min Rain = 0
KAM1 250904Z 15011KT 18/18 A2997 RMK A01 T01810182  RH  100%=      5-min Rain = 0
KAM1 250905Z 15012KT 18/18 A2997 RMK A01 T01810181  RH  100%=      5-min Rain = 0
KAM1 250906Z 15011KT 18/18 A2997 RMK A01 T01810181  RH  100%=      5-min Rain = 0
KAM1 250907Z 15013KT 18/18 A2997 RMK A01 T01810181  RH  100%=      5-min Rain = 0
KAM1 250908Z 15012KT 18/18 A2997 RMK A01 T01800180  RH  100%=      5-min Rain = 0
KAM1 250909Z 15011KT 18/18 A2997 RMK A01 T01810181  RH  100%=      5-min Rain = 0
KAM1 250910Z 15013KT 18/18 A2997 RMK A01 T01800180  RH  100%=      5-min Rain = 0
KAM1 250911Z 14012KT 18/18 A2997 RMK A01 T01800180  RH  100%=      5-min Rain = 0
KAM1 250912Z 15012KT 18/18 A2997 RMK A01 T01800180  RH  100%=      5-min Rain = 0
KAM1 250913Z 15012KT 18/18 A2997 RMK A01 T01800180  RH  100%=      5-min Rain = 0
KAM1 250914Z 15011KT 18/18 A2997 RMK A01 T01800180  RH  100%=      5-min Rain = 0
KAM1 250915Z 15014KT 18/18 A2997 RMK A01 T01800180  RH  100%=      5-min Rain = 0
KAM1 250916Z 15012KT 18/18 A2997 RMK A01 T01800180  RH  100%=      5-min Rain = 0
KAM1 250917Z 15012KT 18/18 A2997 RMK A01 T01790180  RH  100%=      5-min Rain = 0
KAM1 250918Z 14013KT 18/18 A2998 RMK A01 T01800180  RH  100%=      5-min Rain = 0
KAM1 250919Z 15014KT 18/18 A2998 RMK A01 T01800180  RH  100%=      5-min Rain = 0
KAM1 250920Z 15014KT 18/18 A2998 RMK A01 T01790180  RH  100%=      5-min Rain = 0
KAM1 250921Z 15012KT 18/18 A2998 RMK A01 T01800180  RH  100%=      5-min Rain = 0
KAM1 250922Z 15012KT 18/18 A2998 RMK A01 T01790180  RH  100%=      5-min Rain = 0
KAM1 250923Z 15011KT 18/18 A2998 RMK A01 T01790180  RH  100%=      5-min Rain = 0
KAM1 250924Z 15011KT 18/18 A2998 RMK A01 T01800180  RH  100%=      5-min Rain = 0
KAM1 250925Z 15011KT 18/18 A2998 RMK A01 T01790180  RH  100%=      5-min Rain = 0
KAM1 250926Z 15012KT 18/18 A2998 RMK A01 T01790179  RH  100%=      5-min Rain = 0
KAM1 250927Z 15013KT 18/18 A2998 RMK A01 T01790179  RH  100%=      5-min Rain = 0
KAM1 250928Z 15012KT 18/18 A2998 RMK A01 T01790179  RH  100%=      5-min Rain = 0
KAM1 250929Z 15011KT 18/18 A2997 RMK A01 T01800180  RH  100%=      5-min Rain = 0
KAM1 250930Z 15011KT 18/18 A2997 RMK A01 T01790179  RH  100%=      5-min Rain = 0
KAM1 250931Z 16013KT 18/18 A2998 RMK A01 T01790180  RH  100%=      5-min Rain = 0
KAM1 250932Z 16013KT 18/18 A2998 RMK A01 T01790180  RH  100%=      5-min Rain = 0
KAM1 250933Z 16011KT 18/18 A2998 RMK A01 T01790180  RH  100%=      5-min Rain = 0
KAM1 250934Z 16009KT 18/18 A2998 RMK A01 T01790180  RH  100%=      5-min Rain = 0
KAM1 250935Z 15012KT 18/18 A2998 RMK A01 T01790180  RH  100%=      5-min Rain = 0
KAM1 250936Z 16010KT 18/18 A2998 RMK A01 T01790179  RH  100%=      5-min Rain = 0
KAM1 250937Z 16011KT 18/18 A2998 RMK A01 T01790180  RH  100%=      5-min Rain = 0
KAM1 250938Z 16011KT 18/18 A2998 RMK A01 T01790179  RH  100%=      5-min Rain = 0
KAM1 250939Z 16012KT 18/18 A2998 RMK A01 T01790179  RH  100%=      5-min Rain = 0
KAM1 250940Z 16011KT 18/18 A2998 RMK A01 T01790179  RH  100%=      5-min Rain = 0
KAM1 250941Z 15010KT 18/18 A2998 RMK A01 T01790179  RH  100%=      5-min Rain = 0
KAM1 250942Z 16011KT 18/18 A2998 RMK A01 T01790179  RH  100%=      5-min Rain = 0
KAM1 250943Z 15012KT 18/18 A2998 RMK A01 T01790179  RH  100%=      5-min Rain = 0
KAM1 250944Z 16012KT 18/18 A2998 RMK A01 T01780179  RH  100%=      5-min Rain = 0
KAM1 250945Z 15012KT 18/18 A2998 RMK A01 T01780179  RH  100%=      5-min Rain = 0
KAM1 250946Z 16012KT 18/18 A2997 RMK A01 T01780179  RH  100%=      5-min Rain = 0
KAM1 250947Z 16010KT 18/18 A2998 RMK A01 T01790179  RH  100%=      5-min Rain = 0
KAM1 250948Z 16012KT 18/18 A2998 RMK A01 T01790179  RH  100%=      5-min Rain = 0
KAM1 250949Z 16013KT 18/18 A2997 RMK A01 T01790179  RH  100%=      5-min Rain = 0
KAM1 250950Z 15010KT 18/18 A2998 RMK A01 T01790180  RH  100%=      5-min Rain = 0
KAM1 250951Z 16010KT 18/18 A2998 RMK A01 T01790180  RH  100%=      5-min Rain = 0
KAM1 250952Z 16011KT 18/18 A2998 RMK A01 T01790179  RH  100%=      5-min Rain = 0
KAM1 250953Z 16010KT 18/18 A2998 RMK A01 T01800180  RH  100%=      5-min Rain = 0
KAM1 250954Z 16012KT 18/18 A2998 RMK A01 T01790180  RH  100%=      5-min Rain = 0
KAM1 250955Z 16012KT 18/18 A2998 RMK A01 T01790180  RH  100%=      5-min Rain = 0
KAM1 250956Z 16013KT 18/18 A2998 RMK A01 T01790180  RH  100%=      5-min Rain = 0
KAM1 250957Z 15013KT 18/18 A2998 RMK A01 T01800180  RH  100%=      5-min Rain = 0
KAM1 250958Z 16013KT 18/18 A2997 RMK A01 T01800180  RH  100%=      5-min Rain = 0
KAM1 250959Z 16012KT 18/18 A2997 RMK A01 T01800180  RH  100%=      5-min Rain = 0
KAM1 251000Z 16009KT 18/18 A2998 RMK A01 T01800180  RH  100%=      5-min Rain = 0
KAM1 251001Z 16011KT 18/18 A2998 RMK A01 T01800181  RH  100%=      5-min Rain = 0
KAM1 251002Z 16010KT 18/18 A2998 RMK A01 T01800181  RH  100%=      5-min Rain = 0
KAM1 251003Z 16010KT 18/18 A2998 RMK A01 T01800180  RH  100%=      5-min Rain = 0
KAM1 251004Z 16010KT 18/18 A2998 RMK A01 T01800180  RH  100%=      5-min Rain = 0
KAM1 251005Z 16010KT 18/18 A2998 RMK A01 T01800181  RH  100%=      5-min Rain = 0
KAM1 251006Z 16011KT 18/18 A2998 RMK A01 T01800180  RH  100%=      5-min Rain = 0
KAM1 251007Z 17010KT 18/18 A2998 RMK A01 T01800180  RH  100%=      5-min Rain = 0
KAM1 251008Z 16010KT 18/18 A2998 RMK A01 T01800181  RH  100%=      5-min Rain = 0
KAM1 251009Z 16012KT 18/18 A2998 RMK A01 T01800181  RH  100%=      5-min Rain = 0
KAM1 251010Z 16011KT 18/18 A2998 RMK A01 T01800180  RH  100%=      5-min Rain = 0
KAM1 251011Z 17008KT 18/18 A2998 RMK A01 T01800180  RH  100%=      5-min Rain = 0
KAM1 251012Z 17008KT 18/18 A2998 RMK A01 T01800181  RH  100%=      5-min Rain = 0
KAM1 251013Z 17009KT 18/18 A2998 RMK A01 T01800181  RH  100%=      5-min Rain = 0
KAM1 251014Z 16009KT 18/18 A2998 RMK A01 T01800180  RH  100%=      5-min Rain = 0
KAM1 251015Z 17010KT 18/18 A2998 RMK A01 T01800180  RH  100%=      5-min Rain = 0
KAM1 251016Z 17013KT 18/18 A2998 RMK A01 T01800181  RH  100%=      5-min Rain = 0
KAM1 251017Z 17012KT 18/18 A2998 RMK A01 T01810181  RH  100%=      5-min Rain = 0
KAM1 251018Z 17011KT 18/18 A2998 RMK A01 T01810181  RH  100%=      5-min Rain = 0
KAM1 251019Z 17012KT 18/18 A2998 RMK A01 T01810181  RH  100%=      5-min Rain = 0
KAM1 251020Z 17011KT 18/18 A2998 RMK A01 T01810181  RH  100%=      5-min Rain = 0
KAM1 251021Z 16013KT 18/18 A2998 RMK A01 T01810182  RH  100%=      5-min Rain = 0
KAM1 251022Z 16011KT 18/18 A2998 RMK A01 T01810181  RH  100%=      5-min Rain = 0
KAM1 251023Z 17011KT 18/18 A2998 RMK A01 T01810182  RH  100%=      5-min Rain = 0
KAM1 251024Z 16011G16KT 18/18 A2998 RMK A01 T01810181  RH  100%=      5-min Rain = 0
KAM1 251025Z 16013KT 18/18 A2998 RMK A01 T01810181  RH  100%=      5-min Rain = 0
KAM1 251026Z 17012KT 18/18 A2998 RMK A01 T01820182  RH  100%=      5-min Rain = 0
KAM1 251027Z 16012KT 18/18 A2998 RMK A01 T01820182  RH  100%=      5-min Rain = 0
KAM1 251028Z 17012KT 18/18 A2999 RMK A01 T01820182  RH  100%=      5-min Rain = 0
KAM1 251029Z 17011KT 18/18 A2999 RMK A01 T01820182  RH  100%=      5-min Rain = 0
KAM1 251030Z 16014KT 18/18 A2999 RMK A01 T01820182  RH  100%=      5-min Rain = 0
KAM1 251031Z 17014KT 18/18 A2998 RMK A01 T01820182  RH  100%=      5-min Rain = 0
KAM1 251032Z 16012KT 18/18 A2999 RMK A01 T01820182  RH  100%=      5-min Rain = 0
KAM1 251033Z 17014KT 18/18 A2998 RMK A01 T01820182  RH  100%=      5-min Rain = 0
KAM1 251034Z 17015KT 18/18 A2998 RMK A01 T01820182  RH  100%=      5-min Rain = 0
KAM1 251035Z 17016KT 18/18 A2998 RMK A01 T01820182  RH  100%=      5-min Rain = 0
KAM1 251036Z 17015KT 18/18 A2998 RMK A01 T01820182  RH  100%=      5-min Rain = 0
KAM1 251037Z 17012KT 18/18 A2998 RMK A01 T01820182  RH  100%=      5-min Rain = 0
KAM1 251038Z 17013KT 18/18 A2999 RMK A01 T01820182  RH  100%=      5-min Rain = 0
KAM1 251039Z 17014KT 18/18 A2999 RMK A01 T01820182  RH  100%=      5-min Rain = 0
KAM1 251040Z 17014KT 18/18 A2999 RMK A01 T01820182  RH  100%=      5-min Rain = 0
KAM1 251041Z 16015KT 18/18 A2999 RMK A01 T01820182  RH  100%=      5-min Rain = 0
KAM1 251042Z 17011KT 18/18 A2999 RMK A01 T01820182  RH  100%=      5-min Rain = 0
KAM1 251043Z 17013KT 18/18 A2999 RMK A01 T01820182  RH  100%=      5-min Rain = 0
KAM1 251044Z 17014KT 18/18 A2999 RMK A01 T01820182  RH  100%=      5-min Rain = 0
KAM1 251045Z 17012KT 18/18 A2999 RMK A01 T01820182  RH  100%=      5-min Rain = 0
KAM1 251046Z 17015KT 18/18 A2999 RMK A01 T01820183  RH  100%=      5-min Rain = 0
KAM1 251047Z 17013KT 18/18 A2999 RMK A01 T01820182  RH  100%=      5-min Rain = 0
KAM1 251048Z 17012KT 18/18 A2999 RMK A01 T01820182  RH  100%=      5-min Rain = 0
KAM1 251049Z 17012KT 18/18 A2999 RMK A01 T01820182  RH  100%=      5-min Rain = 0
KAM1 251050Z 17010KT 18/18 A2999 RMK A01 T01820182  RH  100%=      5-min Rain = 0
KAM1 251051Z 17014KT 18/18 A2999 RMK A01 T01820182  RH  100%=      5-min Rain = 0
KAM1 251052Z 16013KT 18/18 A2999 RMK A01 T01820182  RH  100%=      5-min Rain = 0
KAM1 251053Z 17015KT 18/18 A2999 RMK A01 T01820182  RH  100%=      5-min Rain = 0
KAM1 251054Z 17013KT 18/18 A2999 RMK A01 T01820182  RH  100%=      5-min Rain = 0
KAM1 251055Z 17014KT 18/18 A2999 RMK A01 T01820182  RH  100%=      5-min Rain = 0
KAM1 251056Z 17011KT 18/18 A2999 RMK A01 T01820182  RH  100%=      5-min Rain = 0
KAM1 251057Z 17010KT 18/18 A2999 RMK A01 T01820182  RH  100%=      5-min Rain = 0
KAM1 251058Z 17013KT 18/18 A2999 RMK A01 T01820182  RH  100%=      5-min Rain = 0
KAM1 251059Z 17011KT 18/18 A2999 RMK A01 T01810181  RH  100%=      5-min Rain = 0
KAM1 251100Z 16009KT 18/18 A2999 RMK A01 T01810181  RH  100%=      5-min Rain = 0
KAM1 251101Z 17008KT 18/18 A2999 RMK A01 T01810181  RH  100%=      5-min Rain = 0
KAM1 251102Z 17010KT 18/18 A2999 RMK A01 T01810181  RH  100%=      5-min Rain = 0
KAM1 251103Z 17009KT 18/18 A2999 RMK A01 T01810181  RH  100%=      5-min Rain = 0
KAM1 251104Z 16013KT 18/18 A2999 RMK A01 T01810182  RH  100%=      5-min Rain = 0
KAM1 251105Z 16012KT 18/18 A2999 RMK A01 T01810181  RH  100%=      5-min Rain = 0
KAM1 251106Z 17010KT 18/18 A30 RMK A01 T01810181  RH  100%=      5-min Rain = 0
KAM1 251107Z 16012KT 18/18 A2999 RMK A01 T01810181  RH  100%=      5-min Rain = 0
KAM1 251108Z 17012KT 18/18 A30 RMK A01 T01810181  RH  100%=      5-min Rain = 0
KAM1 251109Z 17012KT 18/18 A30 RMK A01 T01810181  RH  100%=      5-min Rain = 0
KAM1 251110Z 17011KT 18/18 A30 RMK A01 T01810181  RH  100%=      5-min Rain = 0
KAM1 251111Z 16010KT 18/18 A30 RMK A01 T01810181  RH  100%=      5-min Rain = 0
KAM1 251112Z 16010KT 18/18 A30 RMK A01 T01810181  RH  100%=      5-min Rain = 0
KAM1 251113Z 17010KT 18/18 A30 RMK A01 T01810181  RH  100%=      5-min Rain = 0
KAM1 251114Z 17009KT 18/18 A30 RMK A01 T01810181  RH  100%=      5-min Rain = 0
KAM1 251115Z 16010KT 18/18 A30 RMK A01 T01800180  RH  100%=      5-min Rain = 0
KAM1 251116Z 16009KT 18/18 A30 RMK A01 T01800180  RH  100%=      5-min Rain = 0
KAM1 251117Z 17007KT 18/18 A30 RMK A01 T01800180  RH  100%=      5-min Rain = 0
KAM1 251118Z 17008KT 18/18 A30 RMK A01 T01800180  RH  100%=      5-min Rain = 0
KAM1 251119Z 16010KT 18/18 A30 RMK A01 T01800180  RH  100%=      5-min Rain = 0
KAM1 251120Z 17011KT 18/18 A30 RMK A01 T01800180  RH  100%=      5-min Rain = 0
KAM1 251121Z 17011KT 18/18 A30 RMK A01 T01800180  RH  100%=      5-min Rain = 0
KAM1 251122Z 17010KT 18/18 A30 RMK A01 T01790180  RH  100%=      5-min Rain = 0
KAM1 251123Z 17010KT 18/18 A30 RMK A01 T01790180  RH  100%=      5-min Rain = 0
KAM1 251124Z 17013KT 18/18 A30 RMK A01 T01790179  RH  100%=      5-min Rain = 0
KAM1 251125Z 17011KT 18/18 A30 RMK A01 T01790179  RH  100%=      5-min Rain = 0
KAM1 251126Z 17010KT 18/18 A30 RMK A01 T01790179  RH  100%=      5-min Rain = 0
KAM1 251127Z 16012KT 18/18 A30 RMK A01 T01790179  RH  100%=      5-min Rain = 0
KAM1 251128Z 17011KT 18/18 A30 RMK A01 T01790179  RH  100%=      5-min Rain = 0
KAM1 251129Z 17009KT 18/18 A30 RMK A01 T01790179  RH  100%=      5-min Rain = 0
KAM1 251130Z 17009KT 18/18 A3001 RMK A01 T01790179  RH  100%=      5-min Rain = 0
KAM1 251131Z 17010KT 18/18 A3001 RMK A01 T01790179  RH  100%=      5-min Rain = 0
KAM1 251132Z 17008KT 18/18 A3001 RMK A01 T01790179  RH  100%=      5-min Rain = 0
KAM1 251133Z 17012KT 18/18 A3001 RMK A01 T01780179  RH  100%=      5-min Rain = 0
KAM1 251134Z 18010KT 18/18 A3001 RMK A01 T01790179  RH  100%=      5-min Rain = 0
KAM1 251135Z 17010KT 18/18 A3001 RMK A01 T01780178  RH  100%=      5-min Rain = 0
KAM1 251136Z 18009KT 18/18 A3001 RMK A01 T01780178  RH  100%=      5-min Rain = 0
KAM1 251137Z 17011KT 18/18 A3001 RMK A01 T01780178  RH  100%=      5-min Rain = 0
KAM1 251138Z 17009KT 18/18 A3001 RMK A01 T01780178  RH  100%=      5-min Rain = 0
KAM1 251139Z 17011KT 18/18 A3001 RMK A01 T01780178  RH  100%=      5-min Rain = 0
KAM1 251140Z 18009KT 18/18 A3001 RMK A01 T01780178  RH  100%=      5-min Rain = 0
KAM1 251141Z 17009KT 18/18 A3001 RMK A01 T01780178  RH  100%=      5-min Rain = 0
KAM1 251142Z 17010KT 18/18 A3001 RMK A01 T01780178  RH  100%=      5-min Rain = 0
KAM1 251143Z 17012KT 18/18 A3001 RMK A01 T01780178  RH  100%=      5-min Rain = 0
KAM1 251144Z 17010KT 18/18 A3001 RMK A01 T01780178  RH  100%=      5-min Rain = 0
KAM1 251145Z 17013KT 18/18 A3001 RMK A01 T01780178  RH  100%=      5-min Rain = 0
KAM1 251146Z 16012KT 18/18 A3001 RMK A01 T01780178  RH  100%=      5-min Rain = 0
KAM1 251147Z 17011KT 18/18 A3001 RMK A01 T01780178  RH  100%=      5-min Rain = 0
KAM1 251148Z 17011KT 18/18 A3001 RMK A01 T01780178  RH  100%=      5-min Rain = 0
KAM1 251149Z 17012KT 18/18 A3001 RMK A01 T01780179  RH  100%=      5-min Rain = 0
KAM1 251150Z 17011KT 18/18 A3001 RMK A01 T01780178  RH  100%=      5-min Rain = 0
KAM1 251151Z 16011KT 18/18 A3001 RMK A01 T01780178  RH  100%=      5-min Rain = 0
KAM1 251152Z 17010KT 18/18 A3001 RMK A01 T01780178  RH  100%=      5-min Rain = 0
KAM1 251153Z 16010KT 18/18 A3001 RMK A01 T01780178  RH  100%=      5-min Rain = 0
KAM1 251154Z 17011KT 18/18 A3001 RMK A01 T01780178  RH  100%=      5-min Rain = 0
KAM1 251155Z 17012KT 18/18 A3001 RMK A01 T01780178  RH  100%=      5-min Rain = 0
KAM1 251156Z 17013KT 18/18 A3001 RMK A01 T01780178  RH  100%=      5-min Rain = 0
KAM1 251157Z 17013KT 18/18 A3001 RMK A01 T01780178  RH  100%=      5-min Rain = 0
KAM1 251158Z 17012KT 18/18 A3001 RMK A01 T01780178  RH  100%=      5-min Rain = 0
KAM1 251159Z 17009KT 18/18 A3001 RMK A01 T01780178  RH  100%=      5-min Rain = 0
KAM1 251200Z 17009KT 18/18 A3001 RMK A01 T01780178  RH  100%=      5-min Rain = 0
KAM1 251201Z 17010KT 18/18 A3001 RMK A01 T01780178  RH  100%=      5-min Rain = 0
KAM1 251202Z 17011KT 18/18 A3001 RMK A01 T01780178  RH  100%=      5-min Rain = 0
KAM1 251203Z 17012KT 18/18 A3001 RMK A01 T01780178  RH  100%=      5-min Rain = 0
KAM1 251204Z 17010KT 18/18 A3001 RMK A01 T01780178  RH  100%=      5-min Rain = 0
KAM1 251205Z 17011KT 18/18 A3001 RMK A01 T01780178  RH  100%=      5-min Rain = 0
KAM1 251206Z 17010KT 18/18 A3001 RMK A01 T01780178  RH  100%=      5-min Rain = 0
KAM1 251207Z 17009KT 18/18 A3002 RMK A01 T01780178  RH  100%=      5-min Rain = 0
KAM1 251208Z 17009KT 18/18 A3002 RMK A01 T01780178  RH  100%=      5-min Rain = 0
KAM1 251209Z 17009KT 18/18 A3002 RMK A01 T01790179  RH  100%=      5-min Rain = 0
KAM1 251210Z 17008KT 18/18 A3002 RMK A01 T01790179  RH  100%=      5-min Rain = 0
KAM1 251211Z 17010KT 18/18 A3002 RMK A01 T01790179  RH  100%=      5-min Rain = 0
KAM1 251212Z 16011KT 18/18 A3002 RMK A01 T01790179  RH  100%=      5-min Rain = 0
KAM1 251213Z 16010KT 18/18 A3002 RMK A01 T01790179  RH  100%=      5-min Rain = 0
KAM1 251214Z 17010KT 18/18 A3002 RMK A01 T01790179  RH  100%=      5-min Rain = 0
KAM1 251215Z 17008KT 18/18 A3002 RMK A01 T01790179  RH  100%=      5-min Rain = 0
KAM1 251216Z 17010KT 18/18 A3002 RMK A01 T01790179  RH  100%=      5-min Rain = 0
KAM1 251217Z 17010KT 18/18 A3002 RMK A01 T01790179  RH  100%=      5-min Rain = 0
KAM1 251218Z 17010KT 18/18 A3002 RMK A01 T01800180  RH  100%=      5-min Rain = 0
KAM1 251219Z 17010KT 18/18 A3002 RMK A01 T01790180  RH  100%=      5-min Rain = 0
KAM1 251220Z 16009KT 18/18 A3002 RMK A01 T01790179  RH  100%=      5-min Rain = 0
KAM1 251221Z 17009KT 18/18 A3002 RMK A01 T01800180  RH  100%=      5-min Rain = 0
KAM1 251222Z 17011KT 18/18 A3002 RMK A01 T01800180  RH  100%=      5-min Rain = 0
KAM1 251223Z 16013KT 18/18 A3002 RMK A01 T01800180  RH  100%=      5-min Rain = 0
KAM1 251224Z 17011KT 18/18 A3002 RMK A01 T01800180  RH  100%=      5-min Rain = 0
KAM1 251225Z 17010KT 18/18 A3002 RMK A01 T01800181  RH  100%=      5-min Rain = 0
KAM1 251226Z 16009KT 18/18 A3002 RMK A01 T01800180  RH  100%=      5-min Rain = 0
KAM1 251227Z 17009KT 18/18 A3002 RMK A01 T01800180  RH  100%=      5-min Rain = 0
KAM1 251228Z 17009KT 18/18 A3002 RMK A01 T01800180  RH  100%=      5-min Rain = 0
KAM1 251229Z 17009KT 18/18 A3002 RMK A01 T01810181  RH  100%=      5-min Rain = 0
KAM1 251230Z 17009KT 18/18 A3002 RMK A01 T01810181  RH  100%=      5-min Rain = 0
KAM1 251231Z 17010KT 18/18 A3002 RMK A01 T01810181  RH  100%=      5-min Rain = 0
KAM1 251232Z 17010KT 18/18 A3002 RMK A01 T01810181  RH  100%=      5-min Rain = 0
KAM1 251233Z 17009KT 18/18 A3002 RMK A01 T01810181  RH  100%=      5-min Rain = 0
KAM1 251234Z 16009KT 18/18 A3002 RMK A01 T01810181  RH  100%=      5-min Rain = 0
KAM1 251235Z 17009KT 18/18 A3002 RMK A01 T01810181  RH  100%=      5-min Rain = 0
KAM1 251236Z 17008KT 18/18 A3002 RMK A01 T01820182  RH  100%=      5-min Rain = 0
KAM1 251237Z 17008KT 18/18 A3002 RMK A01 T01820182  RH  100%=      5-min Rain = 0
KAM1 251238Z 16007KT 18/18 A3002 RMK A01 T01820182  RH  100%=      5-min Rain = 0
KAM1 251239Z 17010KT 18/18 A3002 RMK A01 T01820182  RH  100%=      5-min Rain = 0
KAM1 251240Z 17010KT 18/18 A3002 RMK A01 T01820183  RH  100%=      5-min Rain = 0
KAM1 251241Z 17009KT 18/18 A3002 RMK A01 T01820182  RH  100%=      5-min Rain = 0
KAM1 251242Z 17007KT 18/18 A3002 RMK A01 T01820182  RH  100%=      5-min Rain = 0
KAM1 251243Z 17009KT 18/18 A3002 RMK A01 T01830183  RH  100%=      5-min Rain = 0
KAM1 251244Z 17010KT 18/18 A3002 RMK A01 T01830183  RH  100%=      5-min Rain = 0
KAM1 251245Z 18010KT 18/18 A3002 RMK A01 T01830183  RH  100%=      5-min Rain = 0
KAM1 251246Z 17009KT 18/18 A3002 RMK A01 T01830183  RH  100%=      5-min Rain = 0
KAM1 251247Z 17010KT 18/18 A3002 RMK A01 T01830183  RH  100%=      5-min Rain = 0
KAM1 251248Z 17011KT 18/18 A3002 RMK A01 T01830183  RH  100%=      5-min Rain = 0
KAM1 251249Z 17010KT 18/18 A3002 RMK A01 T01830183  RH  100%=      5-min Rain = 0
KAM1 251250Z 17009KT 18/18 A3002 RMK A01 T01830183  RH  100%=      5-min Rain = 0
KAM1 251251Z 17009KT 18/18 A3002 RMK A01 T01830183  RH  100%=      5-min Rain = 0
KAM1 251252Z 17010KT 18/18 A3002 RMK A01 T01830183  RH  100%=      5-min Rain = 0
KAM1 251253Z 17011KT 18/18 A3002 RMK A01 T01830183  RH  100%=      5-min Rain = 0
KAM1 251254Z 17012KT 18/18 A3002 RMK A01 T01830184  RH  100%=      5-min Rain = 0
KAM1 251255Z 17014KT 18/18 A3002 RMK A01 T01840184  RH  100%=      5-min Rain = 0
KAM1 251256Z 17013KT 18/18 A3002 RMK A01 T01840184  RH  100%=      5-min Rain = 0
KAM1 251257Z 17012KT 18/18 A3002 RMK A01 T01830184  RH  100%=      5-min Rain = 0
KAM1 251258Z 17012KT 18/18 A3002 RMK A01 T01840184  RH  100%=      5-min Rain = 0
KAM1 251259Z 17011KT 18/18 A3002 RMK A01 T01840184  RH  100%=      5-min Rain = 0
KAM1 251300Z 17011KT 18/18 A3002 RMK A01 T01840184  RH  100%=      5-min Rain = 0
KAM1 251301Z 17011KT 18/18 A3002 RMK A01 T01840184  RH  100%=      5-min Rain = 0
KAM1 251302Z 17013KT 18/18 A3002 RMK A01 T01840184  RH  100%=      5-min Rain = 0
KAM1 251303Z 17011KT 18/18 A3002 RMK A01 T01840184  RH  100%=      5-min Rain = 0
KAM1 251304Z 17012KT 18/18 A3002 RMK A01 T01840184  RH  100%=      5-min Rain = 0
KAM1 251305Z 17013KT 18/18 A3002 RMK A01 T01840184  RH  100%=      5-min Rain = 0
KAM1 251306Z 17012KT 18/18 A3002 RMK A01 T01840184  RH  100%=      5-min Rain = 0
KAM1 251307Z 17013KT 19/19 A3002 RMK A01 T01850185  RH  100%=      5-min Rain = 0
KAM1 251308Z 17013KT 18/18 A3002 RMK A01 T01840184  RH  100%=      5-min Rain = 0
KAM1 251309Z 17014KT 19/19 A3002 RMK A01 T01850185  RH  100%=      5-min Rain = 0
KAM1 251310Z 17013KT 19/19 A3002 RMK A01 T01850185  RH  100%=      5-min Rain = 0
KAM1 251311Z 18012KT 18/19 A3002 RMK A01 T01840185  RH  100%=      5-min Rain = 0
KAM1 251312Z 17013KT 19/19 A3002 RMK A01 T01850185  RH  100%=      5-min Rain = 0
KAM1 251313Z 17012KT 19/19 A3002 RMK A01 T01850185  RH  100%=      5-min Rain = 0
KAM1 251314Z 18012KT 19/19 A3002 RMK A01 T01850185  RH  100%=      5-min Rain = 0
KAM1 251315Z 17011KT 19/19 A3002 RMK A01 T01850185  RH  100%=      5-min Rain = 0
KAM1 251316Z 17010KT 19/19 A3002 RMK A01 T01850185  RH  100%=      5-min Rain = 0
KAM1 251317Z 18010KT 19/19 A3002 RMK A01 T01860186  RH  100%=      5-min Rain = 0
KAM1 251318Z 18011KT 19/19 A3002 RMK A01 T01860186  RH  100%=      5-min Rain = 0
KAM1 251319Z 17010KT 19/19 A3002 RMK A01 T01860186  RH  100%=      5-min Rain = 0
KAM1 251320Z 18014KT 19/19 A3002 RMK A01 T01860186  RH  100%=      5-min Rain = 0
KAM1 251321Z 17012KT 19/19 A3002 RMK A01 T01860186  RH  100%=      5-min Rain = 0
KAM1 251322Z 17012KT 19/19 A3002 RMK A01 T01860186  RH  100%=      5-min Rain = 0
KAM1 251323Z 18012KT 19/19 A3002 RMK A01 T01860187  RH  100%=      5-min Rain = 0
KAM1 251324Z 18013KT 19/19 A3002 RMK A01 T01870187  RH  100%=      5-min Rain = 0
KAM1 251325Z 18013KT 19/19 A3002 RMK A01 T01870187  RH  100%=      5-min Rain = 0
KAM1 251326Z 18013KT 19/19 A3002 RMK A01 T01870187  RH  100%=      5-min Rain = 0
KAM1 251327Z 17010KT 19/19 A3002 RMK A01 T01870187  RH  100%=      5-min Rain = 0
KAM1 251328Z 18013KT 19/19 A3002 RMK A01 T01870187  RH  100%=      5-min Rain = 0
KAM1 251329Z 18014KT 19/19 A3003 RMK A01 T01870188  RH  100%=      5-min Rain = 0
KAM1 251330Z 17012KT 19/19 A3003 RMK A01 T01880188  RH  100%=      5-min Rain = 0
KAM1 251331Z 18013KT 19/19 A3003 RMK A01 T01880188  RH  100%=      5-min Rain = 0
KAM1 251332Z 18014KT 19/19 A3003 RMK A01 T01880188  RH  100%=      5-min Rain = 0
KAM1 251333Z 18013KT 19/19 A3003 RMK A01 T01880189  RH  100%=      5-min Rain = 0
KAM1 251334Z 18011KT 19/19 A3003 RMK A01 T01880189  RH  100%=      5-min Rain = 0
KAM1 251335Z 18013KT 19/19 A3003 RMK A01 T01890189  RH  100%=      5-min Rain = 0
KAM1 251336Z 17013KT 19/19 A3003 RMK A01 T01890189  RH  100%=      5-min Rain = 0
KAM1 251337Z 17009G14KT 19/19 A3003 RMK A01 T01890189  RH  100%=      5-min Rain = 0
KAM1 251338Z 18013KT 19/19 A3003 RMK A01 T01890189  RH  100%=      5-min Rain = 0
KAM1 251339Z 18013KT 19/19 A3003 RMK A01 T01890189  RH  100%=      5-min Rain = 0
KAM1 251340Z 18011KT 19/19 A3003 RMK A01 T01890190  RH  100%=      5-min Rain = 0
KAM1 251341Z 18013KT 19/19 A3003 RMK A01 T01900190  RH  100%=      5-min Rain = 0
KAM1 251342Z 18014KT 19/19 A3003 RMK A01 T01900190  RH  100%=      5-min Rain = 0
KAM1 251343Z 18014KT 19/19 A3003 RMK A01 T01910191  RH  100%=      5-min Rain = 0
KAM1 251344Z 18011KT 19/19 A3003 RMK A01 T01900191  RH  100%=      5-min Rain = 0
KAM1 251345Z 17012KT 19/19 A3003 RMK A01 T01910191  RH  100%=      5-min Rain = 0
KAM1 251346Z 18010KT 19/19 A3003 RMK A01 T01910191  RH  100%=      5-min Rain = 0
KAM1 251347Z 18011KT 19/19 A3003 RMK A01 T01910191  RH  100%=      5-min Rain = 0
KAM1 251348Z 18012G18KT 19/19 A3003 RMK A01 T01910191  RH  100%=      5-min Rain = 0
KAM1 251349Z 18015KT 19/19 A3003 RMK A01 T01920192  RH  100%=      5-min Rain = 0
KAM1 251350Z 18014KT 19/19 A3003 RMK A01 T01920192  RH  100%=      5-min Rain = 0
KAM1 251351Z 18013KT 19/19 A3003 RMK A01 T01920192  RH  100%=      5-min Rain = 0
KAM1 251352Z 18016KT 19/19 A3003 RMK A01 T01920192  RH  100%=      5-min Rain = 0
KAM1 251353Z 18015G20KT 19/19 A3003 RMK A01 T01920192  RH  100%=      5-min Rain = 0
KAM1 251354Z 18016KT 19/19 A3003 RMK A01 T01920192  RH  100%=      5-min Rain = 0
KAM1 251355Z 18014KT 19/19 A3003 RMK A01 T01920192  RH  100%=      5-min Rain = 0
KAM1 251356Z 18013KT 19/19 A3003 RMK A01 T01920192  RH  100%=      5-min Rain = 0
KAM1 251357Z 18012KT 19/19 A3003 RMK A01 T01930193  RH  100%=      5-min Rain = 0
KAM1 251358Z 18013KT 19/19 A3003 RMK A01 T01930193  RH  100%=      5-min Rain = 0
KAM1 251359Z 18014KT 19/19 A3003 RMK A01 T01930193  RH  100%=      5-min Rain = 0
KAM1 251400Z 18015KT 19/19 A3003 RMK A01 T01930193  RH  100%=      5-min Rain = 0
KAM1 251401Z 18016KT 19/19 A3003 RMK A01 T01930193  RH  100%=      5-min Rain = 0
KAM1 251402Z 18016KT 19/19 A3003 RMK A01 T01930193  RH  100%=      5-min Rain = 0
KAM1 251403Z 17017KT 19/19 A3003 RMK A01 T01930193  RH  100%=      5-min Rain = 0
KAM1 251404Z 18015KT 19/19 A3003 RMK A01 T01940194  RH  100%=      5-min Rain = 0
KAM1 251405Z 18012KT 19/19 A3003 RMK A01 T01940194  RH  100%=      5-min Rain = 0
KAM1 251406Z 17014KT 19/20 A3003 RMK A01 T01940195  RH  100%=      5-min Rain = 0
KAM1 251407Z 18014KT 19/20 A3003 RMK A01 T01940195  RH  100%=      5-min Rain = 0
KAM1 251408Z 18013KT 20/20 A3003 RMK A01 T01950195  RH  100%=      5-min Rain = 0
KAM1 251409Z 18013KT 20/20 A3003 RMK A01 T01950195  RH  100%=      5-min Rain = 0
KAM1 251410Z 18015KT 20/20 A3003 RMK A01 T01950195  RH  100%=      5-min Rain = 0
KAM1 251411Z 18013KT 20/20 A3004 RMK A01 T01960196  RH  100%=      5-min Rain = 0
KAM1 251412Z 17015KT 20/20 A3004 RMK A01 T01960196  RH  100%=      5-min Rain = 0
KAM1 251413Z 18016KT 20/20 A3004 RMK A01 T01960196  RH  100%=      5-min Rain = 0
KAM1 251414Z 18014KT 20/20 A3004 RMK A01 T01960196  RH  100%=      5-min Rain = 0
KAM1 251415Z 18013KT 20/20 A3004 RMK A01 T01960196  RH  100%=      5-min Rain = 0
KAM1 251416Z 18015KT 20/20 A3004 RMK A01 T01960197  RH  100%=      5-min Rain = 0
KAM1 251417Z 18016KT 20/20 A3004 RMK A01 T01960197  RH  100%=      5-min Rain = 0
KAM1 251418Z 18014KT 20/20 A3004 RMK A01 T01960196  RH  100%=      5-min Rain = 0
KAM1 251419Z 18014KT 20/20 A3004 RMK A01 T01960196  RH  100%=      5-min Rain = 0
KAM1 251420Z 18014KT 20/20 A3004 RMK A01 T01960196  RH  100%=      5-min Rain = 0
KAM1 251421Z 18014KT 20/20 A3004 RMK A01 T01960196  RH  100%=      5-min Rain = 0
KAM1 251422Z 19014KT 20/20 A3004 RMK A01 T01960196  RH  100%=      5-min Rain = 0
KAM1 251423Z 18014KT 20/20 A3004 RMK A01 T01960196  RH  100%=      5-min Rain = 0
KAM1 251424Z 19012KT 20/20 A3004 RMK A01 T01960196  RH  100%=      5-min Rain = 0
KAM1 251425Z 18013KT 20/20 A3004 RMK A01 T01960197  RH  100%=      5-min Rain = 0
KAM1 251426Z 18013KT 20/20 A3004 RMK A01 T01970197  RH  100%=      5-min Rain = 0
KAM1 251427Z 19016KT 20/20 A3004 RMK A01 T01970197  RH  100%=      5-min Rain = 0
KAM1 251428Z 19013KT 20/20 A3004 RMK A01 T01980198  RH  100%=      5-min Rain = 0
KAM1 251429Z 19013KT 20/20 A3004 RMK A01 T01980198  RH  100%=      5-min Rain = 0
KAM1 251430Z 19013KT 20/20 A3004 RMK A01 T01990199  RH  100%=      5-min Rain = 0
KAM1 251431Z 19014KT 20/20 A3004 RMK A01 T01990199  RH  100%=      5-min Rain = 0
KAM1 251432Z 19013KT 20/20 A3004 RMK A01 T01980199  RH  100%=      5-min Rain = 0
KAM1 251433Z 19010KT 20/20 A3004 RMK A01 T01980199  RH  100%=      5-min Rain = 0
KAM1 251434Z 19012KT 20/20 A3004 RMK A01 T01990199  RH  100%=      5-min Rain = 0
KAM1 251435Z 19011KT 20/20 A3004 RMK A01 T01990199  RH  100%=      5-min Rain = 0
KAM1 251436Z 19013KT 20/20 A3004 RMK A01 T01990199  RH  100%=      5-min Rain = 0
KAM1 251437Z 19012KT 20/20 A3004 RMK A01 T01990200  RH  100%=      5-min Rain = 0
KAM1 251438Z 18014KT 20/20 A3004 RMK A01 T01990199  RH  100%=      5-min Rain = 0
KAM1 251439Z 18014KT 20/20 A3004 RMK A01 T02000200  RH  100%=      5-min Rain = 0
KAM1 251440Z 19013KT 20/20 A3004 RMK A01 T02000200  RH  100%=      5-min Rain = 0
KAM1 251441Z 18012KT 20/20 A3004 RMK A01 T02000200  RH  100%=      5-min Rain = 0
KAM1 251442Z 18015KT 20/20 A3004 RMK A01 T02010201  RH  100%=      5-min Rain = 0
KAM1 251443Z 19014KT 20/20 A3004 RMK A01 T02010202  RH  100%=      5-min Rain = 0
KAM1 251444Z 18013KT 20/20 A3004 RMK A01 T02020202  RH  100%=      5-min Rain = 0
KAM1 251445Z 19011G16KT 20/20 A3004 RMK A01 T02030203  RH  100%=      5-min Rain = 0
KAM1 251446Z 20014KT 20/20 A3004 RMK A01 T02040204  RH  100%=      5-min Rain = 0
KAM1 251447Z 19012KT 20/20 A3004 RMK A01 T02040204  RH  100%=      5-min Rain = 0
KAM1 251448Z 19012KT 20/20 A3004 RMK A01 T02040203  RH  099%=      5-min Rain = 0
KAM1 251449Z 19012KT 21/20 A3004 RMK A01 T02050203  RH  099%=      5-min Rain = 0
KAM1 251450Z 20013KT 21/20 A3004 RMK A01 T02050204  RH  099%=      5-min Rain = 0
KAM1 251451Z 20017G22KT 21/20 A3004 RMK A01 T02050203  RH  099%=      5-min Rain = 0
KAM1 251452Z 19017KT 21/20 A3004 RMK A01 T02050202  RH  098%=      5-min Rain = 0
KAM1 251453Z 20016KT 21/20 A3004 RMK A01 T02050202  RH  098%=      5-min Rain = 0
KAM1 251454Z 20014G19KT 21/20 A3004 RMK A01 T02050202  RH  098%=      5-min Rain = 0
KAM1 251455Z 20018KT 21/20 A3004 RMK A01 T02050202  RH  098%=      5-min Rain = 0
KAM1 251456Z 19015KT 21/20 A3004 RMK A01 T02050201  RH  098%=      5-min Rain = 0
KAM1 251457Z 20014KT 21/20 A3004 RMK A01 T02050202  RH  098%=      5-min Rain = 0
KAM1 251458Z 20013KT 21/20 A3004 RMK A01 T02060202  RH  097%=      5-min Rain = 0
KAM1 251459Z 20016KT 21/20 A3004 RMK A01 T02060202  RH  097%=      5-min Rain = 0
KAM1 251500Z 19016KT 21/20 A3004 RMK A01 T02070200  RH  096%=      5-min Rain = 0
KAM1 251501Z 20014KT 21/20 A3004 RMK A01 T02070200  RH  096%=      5-min Rain = 0
KAM1 251502Z 20016KT 21/20 A3004 RMK A01 T02070200  RH  096%=      5-min Rain = 0
KAM1 251503Z 20015KT 21/20 A3004 RMK A01 T02070201  RH  096%=      5-min Rain = 0
KAM1 251504Z 20012KT 21/20 A3004 RMK A01 T02070202  RH  097%=      5-min Rain = 0
KAM1 251505Z 19013G21KT 21/20 A3004 RMK A01 T02080202  RH  096%=      5-min Rain = 0
KAM1 251506Z 20013KT 21/20 A3004 RMK A01 T02080203  RH  097%=      5-min Rain = 0
KAM1 251507Z 20014KT 21/20 A3004 RMK A01 T02090203  RH  096%=      5-min Rain = 0
KAM1 251508Z 19016KT 21/20 A3004 RMK A01 T02090201  RH  095%=      5-min Rain = 0
KAM1 251509Z 20015KT 21/20 A3004 RMK A01 T02100202  RH  095%=      5-min Rain = 0
KAM1 251510Z 20015KT 21/20 A3004 RMK A01 T02110202  RH  095%=      5-min Rain = 0
KAM1 251511Z 20018KT 21/20 A3004 RMK A01 T02120200  RH  093%=      5-min Rain = 0
KAM1 251512Z 20017KT 21/20 A3004 RMK A01 T02120199  RH  092%=      5-min Rain = 0
KAM1 251513Z 20015KT 21/20 A3004 RMK A01 T02120200  RH  093%=      5-min Rain = 0
KAM1 251514Z 20015KT 21/20 A3004 RMK A01 T02120200  RH  093%=      5-min Rain = 0
KAM1 251515Z 19014KT 21/20 A3004 RMK A01 T02120200  RH  093%=      5-min Rain = 0
KAM1 251516Z 20015KT 21/20 A3004 RMK A01 T02120200  RH  093%=      5-min Rain = 0
KAM1 251517Z 19016KT 21/20 A3004 RMK A01 T02130200  RH  092%=      5-min Rain = 0
KAM1 251518Z 20016KT 21/20 A3004 RMK A01 T02130200  RH  092%=      5-min Rain = 0
KAM1 251519Z 20017KT 21/20 A3004 RMK A01 T02130199  RH  092%=      5-min Rain = 0
KAM1 251520Z 19016KT 21/20 A3004 RMK A01 T02130198  RH  091%=      5-min Rain = 0
KAM1 251521Z 20017KT 21/20 A3004 RMK A01 T02120198  RH  091%=      5-min Rain = 0
KAM1 251522Z 20018KT 21/20 A3004 RMK A01 T02120198  RH  092%=      5-min Rain = 0
KAM1 251523Z 20015KT 21/20 A3004 RMK A01 T02120198  RH  092%=      5-min Rain = 0
KAM1 251524Z 20015KT 21/20 A3004 RMK A01 T02120199  RH  092%=      5-min Rain = 0
KAM1 251525Z 21013KT 21/20 A3004 RMK A01 T02120198  RH  092%=      5-min Rain = 0
KAM1 251526Z 20012G17KT 21/20 A3004 RMK A01 T02120199  RH  092%=      5-min Rain = 0
KAM1 251527Z 20015KT 21/20 A3004 RMK A01 T02130198  RH  092%=      5-min Rain = 0
KAM1 251528Z 20014KT 21/20 A3004 RMK A01 T02130197  RH  091%=      5-min Rain = 0
KAM1 251529Z 20014KT 21/20 A3004 RMK A01 T02130198  RH  091%=      5-min Rain = 0
KAM1 251530Z 19015KT 21/20 A3004 RMK A01 T02130198  RH  091%=      5-min Rain = 0
KAM1 251531Z 19013KT 21/20 A3004 RMK A01 T02140199  RH  091%=      5-min Rain = 0
KAM1 251532Z 19017KT 21/20 A3004 RMK A01 T02140198  RH  091%=      5-min Rain = 0
KAM1 251533Z 20014KT 21/20 A3004 RMK A01 T02140198  RH  090%=      5-min Rain = 0
KAM1 251534Z 20017KT 21/20 A3004 RMK A01 T02140197  RH  090%=      5-min Rain = 0
KAM1 251535Z 19017KT 21/20 A3004 RMK A01 T02140196  RH  090%=      5-min Rain = 0
KAM1 251536Z 20017KT 21/20 A3004 RMK A01 T02140196  RH  090%=      5-min Rain = 0
KAM1 251537Z 20015KT 21/20 A3004 RMK A01 T02140197  RH  090%=      5-min Rain = 0
KAM1 251538Z 19014KT 22/20 A3004 RMK A01 T02150198  RH  090%=      5-min Rain = 0
KAM1 251539Z 20017G22KT 22/20 A3004 RMK A01 T02150198  RH  090%=      5-min Rain = 0
KAM1 251540Z 20015G20KT 22/20 A3004 RMK A01 T02160197  RH  089%=      5-min Rain = 0
KAM1 251541Z 20016KT 22/20 A3004 RMK A01 T02160197  RH  089%=      5-min Rain = 0
KAM1 251542Z 20015KT 22/20 A3004 RMK A01 T02160195  RH  088%=      5-min Rain = 0
KAM1 251543Z 20017KT 22/20 A3004 RMK A01 T02160195  RH  088%=      5-min Rain = 0
KAM1 251544Z 19016KT 22/20 A3004 RMK A01 T02160197  RH  088%=      5-min Rain = 0
KAM1 251545Z 19016KT 22/20 A3003 RMK A01 T02160196  RH  088%=      5-min Rain = 0
KAM1 251546Z 20014KT 22/20 A3003 RMK A01 T02160197  RH  089%=      5-min Rain = 0
KAM1 251547Z 20015KT 22/20 A3003 RMK A01 T02170197  RH  089%=      5-min Rain = 0
KAM1 251548Z 20014KT 22/20 A3003 RMK A01 T02180198  RH  088%=      5-min Rain = 0
KAM1 251549Z 20013KT 22/20 A3003 RMK A01 T02200202  RH  089%=      5-min Rain = 0
KAM1 251550Z 20015KT 22/20 A3003 RMK A01 T02220199  RH  087%=      5-min Rain = 0
KAM1 251551Z 20015KT 22/20 A3003 RMK A01 T02230200  RH  087%=      5-min Rain = 0
KAM1 251552Z 21014KT 23/20 A3003 RMK A01 T02250203  RH  088%=      5-min Rain = 0
KAM1 251553Z 20012KT 23/20 A3003 RMK A01 T02270202  RH  086%=      5-min Rain = 0
KAM1 251554Z 20012KT 23/20 A3003 RMK A01 T02290204  RH  086%=      5-min Rain = 0
KAM1 251555Z 19014KT 23/20 A3003 RMK A01 T02290201  RH  084%=      5-min Rain = 0
KAM1 251556Z 20016KT 23/20 A3003 RMK A01 T02290200  RH  083%=      5-min Rain = 0
KAM1 251557Z 20015KT 23/20 A3003 RMK A01 T02290200  RH  084%=      5-min Rain = 0
KAM1 251558Z 19012KT 23/20 A3003 RMK A01 T02320204  RH  084%=      5-min Rain = 0
KAM1 251559Z 19015G20KT 24/21 A3003 RMK A01 T02370208  RH  084%=      5-min Rain = 0
KAM1 251600Z 19015KT 24/20 A3003 RMK A01 T02390201  RH  079%=      5-min Rain = 0
KAM1 251601Z 18016KT 24/20 A3003 RMK A01 T02400203  RH  080%=      5-min Rain = 0
KAM1 251602Z 18016KT 24/20 A3003 RMK A01 T02420199  RH  077%=      5-min Rain = 0
KAM1 251603Z 20016KT 24/20 A3003 RMK A01 T02420199  RH  077%=      5-min Rain = 0
KAM1 251604Z 20016KT 24/20 A3003 RMK A01 T02410199  RH  077%=      5-min Rain = 0
KAM1 251605Z 20014KT 24/20 A3003 RMK A01 T02410201  RH  078%=      5-min Rain = 0
KAM1 251606Z 21016KT 24/20 A3002 RMK A01 T02430200  RH  077%=      5-min Rain = 0
KAM1 251607Z 20016KT 24/20 A3002 RMK A01 T02430199  RH  076%=      5-min Rain = 0
KAM1 251608Z 20014KT 24/20 A3002 RMK A01 T02420201  RH  078%=      5-min Rain = 0
KAM1 251609Z 20014KT 24/20 A3002 RMK A01 T02430199  RH  076%=      5-min Rain = 0
KAM1 251610Z 19014KT 24/20 A3002 RMK A01 T02420199  RH  077%=      5-min Rain = 0
KAM1 251611Z 20018KT 24/19 A3002 RMK A01 T02400194  RH  075%=      5-min Rain = 0
KAM1 251612Z 20014KT 24/19 A3002 RMK A01 T02370194  RH  077%=      5-min Rain = 0
KAM1 251613Z 19013KT 24/20 A3002 RMK A01 T02350196  RH  078%=      5-min Rain = 0
KAM1 251614Z 18012KT 24/20 A3002 RMK A01 T02350198  RH  080%=      5-min Rain = 0
KAM1 251615Z 19013KT 24/20 A3002 RMK A01 T02360197  RH  079%=      5-min Rain = 0
KAM1 251616Z 19011KT 24/20 A3002 RMK A01 T02360198  RH  079%=      5-min Rain = 0
KAM1 251617Z 19013KT 24/20 A3002 RMK A01 T02370200  RH  080%=      5-min Rain = 0
KAM1 251618Z 18015KT 24/20 A3002 RMK A01 T02380196  RH  077%=      5-min Rain = 0
KAM1 251619Z 18015KT 24/20 A3002 RMK A01 T02370196  RH  078%=      5-min Rain = 0
KAM1 251620Z 18016KT 24/20 A3002 RMK A01 T02360196  RH  078%=      5-min Rain = 0
KAM1 251621Z 18012KT 24/20 A3002 RMK A01 T02360196  RH  078%=      5-min Rain = 0
KAM1 251622Z 19017KT 24/20 A3002 RMK A01 T02360195  RH  078%=      5-min Rain = 0
KAM1 251623Z 20014KT 24/19 A3002 RMK A01 T02360193  RH  077%=      5-min Rain = 0
KAM1 251624Z 19013G19KT 24/20 A3002 RMK A01 T02360197  RH  078%=      5-min Rain = 0
KAM1 251625Z 19015KT 24/20 A3002 RMK A01 T02370196  RH  078%=      5-min Rain = 0
KAM1 251626Z 19013KT 24/20 A3003 RMK A01 T02360198  RH  079%=      5-min Rain = 0
KAM1 251627Z 18014KT 24/20 A3002 RMK A01 T02360198  RH  079%=      5-min Rain = 0
KAM1 251628Z 17013G18KT 24/20 A3003 RMK A01 T02360197  RH  079%=      5-min Rain = 0
KAM1 251629Z 17015KT 24/20 A3002 RMK A01 T02360196  RH  078%=      5-min Rain = 0
KAM1 251630Z 18012KT 24/20 A3003 RMK A01 T02360196  RH  078%=      5-min Rain = 0
KAM1 251631Z 17010KT 24/20 A3003 RMK A01 T02360198  RH  079%=      5-min Rain = 0
KAM1 251632Z 18011KT 24/20 A3003 RMK A01 T02390201  RH  079%=      5-min Rain = 0
KAM1 251633Z 18014KT 24/20 A3003 RMK A01 T02440200  RH  077%=      5-min Rain = 0
KAM1 251634Z 18012KT 25/20 A3003 RMK A01 T02490201  RH  075%=      5-min Rain = 0
KAM1 251635Z 18016KT 25/20 A3003 RMK A01 T02520197  RH  072%=      5-min Rain = 0
KAM1 251636Z 18018KT 25/19 A3003 RMK A01 T02520194  RH  070%=      5-min Rain = 0
KAM1 251637Z 18018KT 25/19 A3003 RMK A01 T02500194  RH  071%=      5-min Rain = 0
KAM1 251638Z 18017KT 25/19 A3003 RMK A01 T02470192  RH  071%=      5-min Rain = 0
KAM1 251639Z 18015KT 24/19 A3003 RMK A01 T02440192  RH  073%=      5-min Rain = 0
KAM1 251640Z 17014KT 24/19 A3003 RMK A01 T02430194  RH  074%=      5-min Rain = 0
KAM1 251641Z 18015KT 25/20 A3003 RMK A01 T02470200  RH  075%=      5-min Rain = 0
KAM1 251642Z 18013KT 25/20 A3003 RMK A01 T02490198  RH  073%=      5-min Rain = 0
KAM1 251643Z 17014KT 25/20 A3003 RMK A01 T02500197  RH  073%=      5-min Rain = 0
KAM1 251644Z 17013KT 25/20 A3003 RMK A01 T02500199  RH  073%=      5-min Rain = 0
KAM1 251645Z 17013KT 25/20 A3003 RMK A01 T02490195  RH  072%=      5-min Rain = 0
KAM1 251646Z 18012KT 25/20 A3003 RMK A01 T02460196  RH  074%=      5-min Rain = 0
KAM1 251647Z 18012KT 25/20 A3003 RMK A01 T02460199  RH  075%=      5-min Rain = 0
KAM1 251648Z 17014KT 25/19 A3003 RMK A01 T02450192  RH  072%=      5-min Rain = 0
KAM1 251649Z 18014KT 24/19 A3003 RMK A01 T02420191  RH  073%=      5-min Rain = 0
KAM1 251650Z 18010KT 24/20 A3003 RMK A01 T02410195  RH  076%=      5-min Rain = 0
KAM1 251651Z 18013KT 24/20 A3003 RMK A01 T02420198  RH  076%=      5-min Rain = 0
KAM1 251652Z 18014KT 24/20 A3003 RMK A01 T02440197  RH  075%=      5-min Rain = 0
KAM1 251653Z 16014KT 24/20 A3003 RMK A01 T02430196  RH  075%=      5-min Rain = 0
KAM1 251654Z 17013KT 24/20 A3003 RMK A01 T02420196  RH  076%=      5-min Rain = 0
KAM1 251655Z 18019KT 24/20 A3003 RMK A01 T02400195  RH  076%=      5-min Rain = 0
KAM1 251656Z 17016KT 24/19 A3003 RMK A01 T02380193  RH  076%=      5-min Rain = 0
KAM1 251657Z 17015KT 24/19 A3003 RMK A01 T02380194  RH  076%=      5-min Rain = 0
KAM1 251658Z 16016KT 24/20 A3003 RMK A01 T02380196  RH  077%=      5-min Rain = 0
KAM1 251659Z 16015KT 24/20 A3003 RMK A01 T02410197  RH  076%=      5-min Rain = 0
KAM1 251700Z 17014KT 24/19 A3003 RMK A01 T02410194  RH  075%=      5-min Rain = 0
KAM1 251701Z 17017KT 24/20 A3003 RMK A01 T02400195  RH  076%=      5-min Rain = 0
KAM1 251702Z 17014KT 24/20 A3003 RMK A01 T02390196  RH  077%=      5-min Rain = 0
KAM1 251703Z 17017KT 24/20 A3003 RMK A01 T02390196  RH  077%=      5-min Rain = 0
KAM1 251704Z 17017KT 24/19 A3003 RMK A01 T02370193  RH  076%=      5-min Rain = 0
KAM1 251705Z 17015KT 24/19 A3003 RMK A01 T02350194  RH  078%=      5-min Rain = 0
KAM1 251706Z 16014KT 23/20 A3003 RMK A01 T02340196  RH  079%=      5-min Rain = 0
KAM1 251707Z 17016KT 23/20 A3003 RMK A01 T02340195  RH  079%=      5-min Rain = 0
KAM1 251708Z 16015KT 23/20 A3003 RMK A01 T02340196  RH  079%=      5-min Rain = 0
KAM1 251709Z 16017KT 24/20 A3003 RMK A01 T02360196  RH  078%=      5-min Rain = 0
KAM1 251710Z 16015KT 24/20 A3003 RMK A01 T02400198  RH  077%=      5-min Rain = 0
KAM1 251711Z 17013KT 24/20 A3003 RMK A01 T02440203  RH  078%=      5-min Rain = 0
KAM1 251712Z 17014KT 25/20 A3003 RMK A01 T02480201  RH  075%=      5-min Rain = 0
KAM1 251713Z 17013KT 25/20 A3003 RMK A01 T02500200  RH  074%=      5-min Rain = 0
KAM1 251714Z 17013KT 25/20 A3003 RMK A01 T02480200  RH  074%=      5-min Rain = 0
KAM1 251715Z 17012KT 25/20 A3003 RMK A01 T02460197  RH  074%=      5-min Rain = 0
KAM1 251716Z 15010KT 25/20 A3003 RMK A01 T02450202  RH  077%=      5-min Rain = 0
KAM1 251717Z 16015KT 25/20 A3003 RMK A01 T02460201  RH  076%=      5-min Rain = 0
KAM1 251718Z 15017KT 25/20 A3003 RMK A01 T02470200  RH  075%=      5-min Rain = 0
KAM1 251719Z 16016KT 25/20 A3003 RMK A01 T02460199  RH  075%=      5-min Rain = 0
KAM1 251720Z 16014KT 24/20 A3003 RMK A01 T02440198  RH  076%=      5-min Rain = 0
KAM1 251721Z 16015KT 24/20 A3003 RMK A01 T02440198  RH  076%=      5-min Rain = 0
KAM1 251722Z 17016KT 24/20 A3003 RMK A01 T02440197  RH  075%=      5-min Rain = 0
KAM1 251723Z 16014G19KT 24/20 A3003 RMK A01 T02440198  RH  076%=      5-min Rain = 0
KAM1 251724Z 17017KT 24/20 A3003 RMK A01 T02430196  RH  075%=      5-min Rain = 0
KAM1 251725Z 16016KT 24/20 A3003 RMK A01 T02420197  RH  076%=      5-min Rain = 0
KAM1 251726Z 16014KT 24/20 A3003 RMK A01 T02420197  RH  076%=      5-min Rain = 0
KAM1 251727Z 16017KT 24/20 A3003 RMK A01 T02410195  RH  075%=      5-min Rain = 0
KAM1 251728Z 17015KT 24/19 A3003 RMK A01 T02400194  RH  075%=      5-min Rain = 0
KAM1 251729Z 17013KT 24/20 A3003 RMK A01 T02410197  RH  077%=      5-min Rain = 0
KAM1 251730Z 17016KT 24/20 A3003 RMK A01 T02430197  RH  076%=      5-min Rain = 0
KAM1 251731Z 17016KT 25/20 A3003 RMK A01 T02450197  RH  075%=      5-min Rain = 0
KAM1 251732Z 17014KT 25/20 A3003 RMK A01 T02450198  RH  075%=      5-min Rain = 0
KAM1 251733Z 17015G21KT 25/20 A3004 RMK A01 T02450199  RH  075%=      5-min Rain = 0
KAM1 251734Z 16015KT 25/19 A3003 RMK A01 T02450194  RH  073%=      5-min Rain = 0
KAM1 251735Z 17018KT 24/20 A3003 RMK A01 T02440195  RH  074%=      5-min Rain = 0
KAM1 251736Z 16017KT 24/20 A3003 RMK A01 T02440196  RH  074%=      5-min Rain = 0
KAM1 251737Z 16017KT 25/20 A3003 RMK A01 T02450196  RH  074%=      5-min Rain = 0
KAM1 251738Z 16018KT 25/20 A3003 RMK A01 T02460195  RH  073%=      5-min Rain = 0
KAM1 251739Z 16016KT 25/20 A3003 RMK A01 T02450195  RH  073%=      5-min Rain = 0
KAM1 251740Z 16016KT 24/20 A3003 RMK A01 T02440196  RH  074%=      5-min Rain = 0
KAM1 251741Z 17012KT 25/20 A3003 RMK A01 T02450199  RH  076%=      5-min Rain = 0
KAM1 251742Z 17019KT 25/20 A3003 RMK A01 T02480199  RH  074%=      5-min Rain = 0
KAM1 251743Z 17019KT 25/19 A3003 RMK A01 T02480193  RH  072%=      5-min Rain = 0
KAM1 251744Z 18017KT 25/19 A3003 RMK A01 T02460193  RH  072%=      5-min Rain = 0
KAM1 251745Z 18014KT 25/19 A3003 RMK A01 T02450191  RH  072%=      5-min Rain = 0
KAM1 251746Z 16015KT 24/19 A3003 RMK A01 T02440193  RH  073%=      5-min Rain = 0
KAM1 251747Z 15010KT 24/20 A3003 RMK A01 T02420198  RH  076%=      5-min Rain = 0
KAM1 251748Z 15011KT 24/20 A3003 RMK A01 T02440201  RH  077%=      5-min Rain = 0
KAM1 251749Z 16016KT 25/20 A3003 RMK A01 T02480200  RH  075%=      5-min Rain = 0
KAM1 251750Z 15015KT 25/20 A3003 RMK A01 T02490200  RH  074%=      5-min Rain = 0
KAM1 251751Z 15015KT 25/20 A3003 RMK A01 T02490198  RH  073%=      5-min Rain = 0
KAM1 251752Z 15016KT 25/20 A3003 RMK A01 T02460196  RH  074%=      5-min Rain = 0
KAM1 251753Z 15019KT 24/20 A3003 RMK A01 T02440195  RH  074%=      5-min Rain = 0
KAM1 251754Z 15014KT 24/20 A3003 RMK A01 T02410195  RH  075%=      5-min Rain = 0
KAM1 251755Z 16013G18KT 24/20 A3003 RMK A01 T02410196  RH  076%=      5-min Rain = 0
KAM1 251756Z 17013KT 24/20 A3003 RMK A01 T02410197  RH  077%=      5-min Rain = 0
KAM1 251757Z 17015KT 24/20 A3003 RMK A01 T02410195  RH  075%=      5-min Rain = 0
KAM1 251758Z 17014KT 24/19 A3003 RMK A01 T02410192  RH  074%=      5-min Rain = 0
KAM1 251759Z 18016KT 24/19 A3003 RMK A01 T02390193  RH  076%=      5-min Rain = 0
KAM1 251800Z 17014KT 24/19 A3003 RMK A01 T02380194  RH  076%=      5-min Rain = 0
KAM1 251801Z 17012KT 24/20 A3003 RMK A01 T02390196  RH  077%=      5-min Rain = 0
KAM1 251802Z 16015KT 24/20 A3003 RMK A01 T02400195  RH  076%=      5-min Rain = 0
KAM1 251803Z 16014KT 24/19 A3003 RMK A01 T02400194  RH  076%=      5-min Rain = 0
KAM1 251804Z 16014KT 24/20 A3003 RMK A01 T02410195  RH  075%=      5-min Rain = 0
KAM1 251805Z 17014KT 24/19 A3003 RMK A01 T02420194  RH  075%=      5-min Rain = 0
KAM1 251806Z 17014KT 24/19 A3002 RMK A01 T02410193  RH  075%=      5-min Rain = 0
KAM1 251807Z 18016KT 24/19 A3002 RMK A01 T02400193  RH  075%=      5-min Rain = 0
KAM1 251808Z 17014KT 24/19 A3002 RMK A01 T02380192  RH  075%=      5-min Rain = 0
KAM1 251809Z 16015KT 24/19 A3002 RMK A01 T02370194  RH  077%=      5-min Rain = 0
KAM1 251810Z 17017KT 24/20 A3002 RMK A01 T02370195  RH  077%=      5-min Rain = 0
KAM1 251811Z 17014KT 24/20 A3002 RMK A01 T02380195  RH  077%=      5-min Rain = 0
KAM1 251812Z 16013KT 24/20 A3002 RMK A01 T02380196  RH  078%=      5-min Rain = 0
KAM1 251813Z 16017KT 24/20 A3002 RMK A01 T02370196  RH  077%=      5-min Rain = 0
KAM1 251814Z 17016KT 24/20 A3002 RMK A01 T02370196  RH  078%=      5-min Rain = 0
KAM1 251815Z 16014KT 24/20 A3002 RMK A01 T02370197  RH  078%=      5-min Rain = 0
KAM1 251816Z 16014KT 24/20 A3002 RMK A01 T02390198  RH  078%=      5-min Rain = 0
KAM1 251817Z 16013KT 24/20 A3002 RMK A01 T02410198  RH  077%=      5-min Rain = 0
KAM1 251818Z 16014KT 24/20 A3002 RMK A01 T02430199  RH  076%=      5-min Rain = 0
KAM1 251819Z 16015KT 25/20 A3002 RMK A01 T02450197  RH  075%=      5-min Rain = 0
KAM1 251820Z 16017KT 25/20 A3002 RMK A01 T02470196  RH  073%=      5-min Rain = 0
KAM1 251821Z 16015KT 25/20 A3002 RMK A01 T02480197  RH  073%=      5-min Rain = 0
KAM1 251822Z 16013KT 25/20 A3002 RMK A01 T02470199  RH  075%=      5-min Rain = 0
KAM1 251823Z 15014KT 25/20 A3002 RMK A01 T02460197  RH  074%=      5-min Rain = 0
KAM1 251824Z 15016KT 24/19 A3002 RMK A01 T02430192  RH  073%=      5-min Rain = 0
KAM1 251825Z 16013KT 24/19 A3002 RMK A01 T02410193  RH  074%=      5-min Rain = 0
KAM1 251826Z 15011KT 24/20 A3001 RMK A01 T02410197  RH  076%=      5-min Rain = 0
KAM1 251827Z 15015KT 24/20 A3001 RMK A01 T02420196  RH  075%=      5-min Rain = 0
KAM1 251828Z 16017KT 24/20 A3001 RMK A01 T02420196  RH  075%=      5-min Rain = 0
KAM1 251829Z 16014KT 24/19 A3001 RMK A01 T02400193  RH  075%=      5-min Rain = 0
KAM1 251830Z 16015KT 24/19 A3001 RMK A01 T02390193  RH  076%=      5-min Rain = 0
KAM1 251831Z 17014KT 24/19 A3001 RMK A01 T02370194  RH  077%=      5-min Rain = 0
KAM1 251832Z 16016KT 24/19 A3001 RMK A01 T02360192  RH  077%=      5-min Rain = 0
KAM1 251833Z 17013KT 23/19 A3001 RMK A01 T02340193  RH  077%=      5-min Rain = 0
KAM1 251834Z 16013KT 23/20 A3001 RMK A01 T02340195  RH  079%=      5-min Rain = 0
KAM1 251835Z 16017KT 23/19 A3001 RMK A01 T02320194  RH  079%=      5-min Rain = 0
KAM1 251836Z 17015KT 23/20 A3001 RMK A01 T02310195  RH  080%=      5-min Rain = 0
KAM1 251837Z 16016KT 23/20 A3001 RMK A01 T02280197  RH  083%=      5-min Rain = 0
KAM1 251838Z 16013KT 23/20 A30 RMK A01 T02250200  RH  086%=      5-min Rain = 0
KAM1 251839Z 15011KT 22/20 A30 RMK A01 T02220203  RH  089%=      5-min Rain = 0.01
KAM1 251840Z 15011KT 22/21 A30 RMK A01 T02190206  RH  092%=      5-min Rain = 0
KAM1 251841Z 15010KT 22/21 A30 RMK A01 T02180208  RH  094%=      5-min Rain = 0
KAM1 251842Z 15010KT 22/21 A2999 RMK A01 T02180208  RH  094%=      5-min Rain = 0
KAM1 251843Z 15010KT 22/21 A2999 RMK A01 T02180209  RH  095%=      5-min Rain = 0
KAM1 251844Z 16013KT 22/21 A2999 RMK A01 T02180206  RH  093%=      5-min Rain = 0
KAM1 251845Z 16012KT 22/21 A2999 RMK A01 T02180205  RH  093%=      5-min Rain = 0
KAM1 251846Z 16012KT 22/21 A2999 RMK A01 T02180206  RH  093%=      5-min Rain = 0
KAM1 251847Z 15015KT 22/20 A2999 RMK A01 T02190204  RH  091%=      5-min Rain = 0
KAM1 251848Z 16014KT 22/20 A2999 RMK A01 T02200203  RH  090%=      5-min Rain = 0
KAM1 251849Z 16013KT 22/20 A2999 RMK A01 T02210203  RH  090%=      5-min Rain = 0
KAM1 251850Z 16012KT 22/20 A2998 RMK A01 T02210204  RH  090%=      5-min Rain = 0
KAM1 251851Z 15011KT 22/21 A2998 RMK A01 T02220205  RH  090%=      5-min Rain = 0
KAM1 251852Z 16012KT 22/21 A2998 RMK A01 T02230205  RH  089%=      5-min Rain = 0
KAM1 251853Z 15011G16KT 23/21 A2998 RMK A01 T02250208  RH  090%=      5-min Rain = 0
KAM1 251854Z 15015KT 23/21 A2998 RMK A01 T02260208  RH  089%=      5-min Rain = 0
KAM1 251855Z 15014KT 23/21 A2998 RMK A01 T02270205  RH  087%=      5-min Rain = 0
KAM1 251856Z 15015KT 23/21 A2997 RMK A01 T02280205  RH  087%=      5-min Rain = 0
KAM1 251857Z 15016KT 23/20 A2997 RMK A01 T02290203  RH  085%=      5-min Rain = 0
KAM1 251858Z 14015KT 23/20 A2997 RMK A01 T02290202  RH  085%=      5-min Rain = 0
KAM1 251859Z 14015KT 23/20 A2997 RMK A01 T02290201  RH  084%=      5-min Rain = 0
KAM1 251900Z 14016KT 23/20 A2997 RMK A01 T02290201  RH  084%=      5-min Rain = 0
KAM1 251901Z 15019KT 23/20 A2997 RMK A01 T02290200  RH  084%=      5-min Rain = 0
KAM1 251902Z 15018KT 23/20 A2997 RMK A01 T02290199  RH  083%=      5-min Rain = 0
KAM1 251903Z 16018KT 23/20 A2998 RMK A01 T02290199  RH  084%=      5-min Rain = 0
KAM1 251904Z 16016G21KT 23/20 A2998 RMK A01 T02280198  RH  083%=      5-min Rain = 0
KAM1 251905Z 16018KT 23/20 A2999 RMK A01 T02270199  RH  084%=      5-min Rain = 0
KAM1 251906Z 16018KT 23/20 A2999 RMK A01 T02270199  RH  084%=      5-min Rain = 0
KAM1 251907Z 16016KT 23/20 A2999 RMK A01 T02260199  RH  085%=      5-min Rain = 0
KAM1 251908Z 15016KT 23/20 A2999 RMK A01 T02250198  RH  085%=      5-min Rain = 0
KAM1 251909Z 15015KT 22/20 A2999 RMK A01 T02240199  RH  086%=      5-min Rain = 0
KAM1 251910Z 15014KT 22/20 A2999 RMK A01 T02240198  RH  086%=      5-min Rain = 0
KAM1 251911Z 16016KT 22/20 A2999 RMK A01 T02230199  RH  086%=      5-min Rain = 0
KAM1 251912Z 15016KT 22/20 A2999 RMK A01 T02230199  RH  086%=      5-min Rain = 0
KAM1 251913Z 16017KT 22/20 A2999 RMK A01 T02230199  RH  086%=      5-min Rain = 0
KAM1 251914Z 15018KT 22/20 A2998 RMK A01 T02230198  RH  086%=      5-min Rain = 0
KAM1 251915Z 16019G24KT 22/20 A2998 RMK A01 T02220198  RH  086%=      5-min Rain = 0
KAM1 251916Z 16019KT 22/20 A2998 RMK A01 T02220197  RH  086%=      5-min Rain = 0
KAM1 251917Z 16018KT 22/20 A2998 RMK A01 T02210198  RH  086%=      5-min Rain = 0
KAM1 251918Z 16019G24KT 22/20 A2998 RMK A01 T02200198  RH  087%=      5-min Rain = 0
KAM1 251919Z 16018G23KT 22/20 A2998 RMK A01 T02200199  RH  088%=      5-min Rain = 0
KAM1 251920Z 16021KT 22/20 A2997 RMK A01 T02180198  RH  088%=      5-min Rain = 0
KAM1 251921Z 16019KT 22/20 A2997 RMK A01 T02180198  RH  088%=      5-min Rain = 0
KAM1 251922Z 16022KT 22/20 A2997 RMK A01 T02170197  RH  088%=      5-min Rain = 0
KAM1 251923Z 16020KT 22/20 A2997 RMK A01 T02170197  RH  088%=      5-min Rain = 0
KAM1 251924Z 17015G20KT 22/20 A2997 RMK A01 T02170197  RH  089%=      5-min Rain = 0
KAM1 251925Z 16017KT 22/20 A2998 RMK A01 T02160199  RH  090%=      5-min Rain = 0
KAM1 251926Z 17019KT 22/20 A2998 RMK A01 T02160199  RH  090%=      5-min Rain = 0
KAM1 251927Z 17018G24KT 22/20 A2998 RMK A01 T02150199  RH  090%=      5-min Rain = 0
KAM1 251928Z 17016KT 22/20 A2998 RMK A01 T02160200  RH  091%=      5-min Rain = 0
KAM1 251929Z 18018G23KT 22/20 A2998 RMK A01 T02150199  RH  091%=      5-min Rain = 0
KAM1 251930Z 17020G25KT 22/20 A2998 RMK A01 T02150200  RH  091%=      5-min Rain = 0
KAM1 251931Z 17022KT 21/20 A2998 RMK A01 T02140200  RH  092%=      5-min Rain = 0
KAM1 251932Z 17015KT 21/20 A2998 RMK A01 T02140202  RH  093%=      5-min Rain = 0
KAM1 251933Z 17020KT 21/20 A2998 RMK A01 T02130202  RH  094%=      5-min Rain = 0
KAM1 251934Z 18020KT 21/20 A2998 RMK A01 T02120202  RH  094%=      5-min Rain = 0
KAM1 251935Z 17018G23KT 21/20 A2998 RMK A01 T02110204  RH  095%=      5-min Rain = 0
KAM1 251936Z 17019KT 21/20 A2998 RMK A01 T02110204  RH  096%=      5-min Rain = 0
KAM1 251937Z 17015KT 21/21 A2997 RMK A01 T02100205  RH  097%=      5-min Rain = 0
KAM1 251938Z 17014KT 21/21 A2997 RMK A01 T02090206  RH  098%=      5-min Rain = 0
KAM1 251939Z 16013KT 21/21 A2997 RMK A01 T02080206  RH  099%=      5-min Rain = 0
KAM1 251940Z 16017KT 21/21 A2997 RMK A01 T02080206  RH  099%=      5-min Rain = 0
KAM1 251941Z 16013KT 21/21 A2997 RMK A01 T02070206  RH  099%=      5-min Rain = 0
KAM1 251942Z 17013KT 21/21 A2997 RMK A01 T02070206  RH  100%=      5-min Rain = 0
KAM1 251943Z 18015KT 21/21 A2997 RMK A01 T02060206  RH  100%=      5-min Rain = 0
KAM1 251944Z 17013G18KT 21/21 A2997 RMK A01 T02060206  RH  100%=      5-min Rain = 0
KAM1 251945Z 17013KT 21/21 A2997 RMK A01 T02060206  RH  100%=      5-min Rain = 0
KAM1 251946Z 17012KT 21/21 A2997 RMK A01 T02060206  RH  100%=      5-min Rain = 0
KAM1 251947Z 17011KT 21/21 A2997 RMK A01 T02060206  RH  100%=      5-min Rain = 0
KAM1 251948Z 16012KT 21/21 A2997 RMK A01 T02060206  RH  100%=      5-min Rain = 0
KAM1 251949Z 17012KT 21/21 A2997 RMK A01 T02060206  RH  100%=      5-min Rain = 0
KAM1 251950Z 17011KT 21/21 A2997 RMK A01 T02060206  RH  100%=      5-min Rain = 0
KAM1 251951Z 16013KT 21/21 A2997 RMK A01 T02060206  RH  100%=      5-min Rain = 0
KAM1 251952Z 15013KT 21/21 A2997 RMK A01 T02060206  RH  100%=      5-min Rain = 0
KAM1 251953Z 16013KT 21/21 A2997 RMK A01 T02060206  RH  100%=      5-min Rain = 0
KAM1 251954Z 16013KT 21/21 A2997 RMK A01 T02060206  RH  100%=      5-min Rain = 0
KAM1 251955Z 16011KT 21/21 A2997 RMK A01 T02060206  RH  100%=      5-min Rain = 0
KAM1 251956Z 16009KT 21/21 A2997 RMK A01 T02060206  RH  100%=      5-min Rain = 0
KAM1 251957Z 17010KT 21/21 A2997 RMK A01 T02060206  RH  100%=      5-min Rain = 0
KAM1 251958Z 16013KT 21/21 A2998 RMK A01 T02060206  RH  100%=      5-min Rain = 0
KAM1 251959Z 17011KT 21/21 A2998 RMK A01 T02060206  RH  100%=      5-min Rain = 0
KAM1 252000Z 18011KT 21/21 A2999 RMK A01 T02060206  RH  100%=      5-min Rain = 0
KAM1 252001Z 17011KT 21/21 A2999 RMK A01 T02060206  RH  100%=      5-min Rain = 0
KAM1 252002Z 17009KT 21/21 A2999 RMK A01 T02060207  RH  100%=      5-min Rain = 0
KAM1 252003Z 17008KT 21/21 A2999 RMK A01 T02060206  RH  100%=      5-min Rain = 0
KAM1 252004Z 17011KT 21/21 A2998 RMK A01 T02060206  RH  100%=      5-min Rain = 0
KAM1 252005Z 17007KT 21/21 A2998 RMK A01 T02060206  RH  100%=      5-min Rain = 0
KAM1 252006Z 16009KT 21/21 A2998 RMK A01 T02070206  RH  100%=      5-min Rain = 0
KAM1 252007Z 15010KT 21/21 A2998 RMK A01 T02070206  RH  100%=      5-min Rain = 0
KAM1 252008Z 16010KT 21/21 A2998 RMK A01 T02070205  RH  099%=      5-min Rain = 0
KAM1 252009Z 14012KT 21/21 A2998 RMK A01 T02070207  RH  100%=      5-min Rain = 0
KAM1 252010Z 15012KT 21/21 A2997 RMK A01 T02070207  RH  100%=      5-min Rain = 0
KAM1 252011Z 15011KT 21/21 A2996 RMK A01 T02070207  RH  100%=      5-min Rain = 0
KAM1 252012Z 14012KT 21/21 A2996 RMK A01 T02070207  RH  100%=      5-min Rain = 0
KAM1 252013Z 14014G19KT 21/21 A2996 RMK A01 T02070207  RH  100%=      5-min Rain = 0
KAM1 252014Z 15013KT 21/21 A2996 RMK A01 T02060206  RH  100%=      5-min Rain = 0
KAM1 252015Z 15009KT 21/21 A2996 RMK A01 T02060206  RH  100%=      5-min Rain = 0
KAM1 252016Z 16009KT 21/21 A2996 RMK A01 T02060206  RH  100%=      5-min Rain = 0
KAM1 252017Z 15013KT 21/21 A2996 RMK A01 T02060206  RH  100%=      5-min Rain = 0
KAM1 252018Z 16013KT 21/21 A2996 RMK A01 T02060206  RH  100%=      5-min Rain = 0
KAM1 252019Z 17013G18KT 21/21 A2996 RMK A01 T02050206  RH  100%=      5-min Rain = 0
KAM1 252020Z 16013KT 21/21 A2996 RMK A01 T02050206  RH  100%=      5-min Rain = 0
KAM1 252021Z 16016KT 21/21 A2996 RMK A01 T02050206  RH  100%=      5-min Rain = 0
KAM1 252022Z 16013G18KT 21/21 A2996 RMK A01 T02050206  RH  100%=      5-min Rain = 0
KAM1 252023Z 16014KT 21/21 A2997 RMK A01 T02060206  RH  100%=      5-min Rain = 0
KAM1 252024Z 17016G21KT 21/21 A2997 RMK A01 T02060206  RH  100%=      5-min Rain = 0
KAM1 252025Z 16022KT 21/21 A2997 RMK A01 T02060206  RH  100%=      5-min Rain = 0
KAM1 252026Z 16018KT 21/21 A2998 RMK A01 T02060206  RH  100%=      5-min Rain = 0
KAM1 252027Z 16020KT 21/21 A2998 RMK A01 T02070207  RH  100%=      5-min Rain = 0
KAM1 252028Z 16019G25KT 21/21 A2999 RMK A01 T02070207  RH  100%=      5-min Rain = 0
KAM1 252029Z 16022G27KT 21/21 A2999 RMK A01 T02070207  RH  100%=      5-min Rain = 0
KAM1 252030Z 16023KT 21/21 A30 RMK A01 T02070207  RH  100%=      5-min Rain = 0
KAM1 252031Z 16021KT 21/21 A30 RMK A01 T02070207  RH  100%=      5-min Rain = 0
KAM1 252032Z 16020KT 21/21 A30 RMK A01 T02070207  RH  100%=      5-min Rain = 0
KAM1 252033Z 16017G22KT 21/21 A30 RMK A01 T02070207  RH  100%=      5-min Rain = 0
KAM1 252034Z 16017G23KT 21/21 A30 RMK A01 T02070207  RH  100%=      5-min Rain = 0
KAM1 252035Z 17019KT 21/21 A30 RMK A01 T02070207  RH  100%=      5-min Rain = 0
KAM1 252036Z 17016KT 21/21 A30 RMK A01 T02080208  RH  100%=      5-min Rain = 0
KAM1 252037Z 17018G23KT 21/21 A30 RMK A01 T02080208  RH  100%=      5-min Rain = 0
KAM1 252038Z 17017KT 21/21 A30 RMK A01 T02080208  RH  100%=      5-min Rain = 0
KAM1 252039Z 16018KT 21/21 A30 RMK A01 T02080207  RH  100%=      5-min Rain = 0
KAM1 252040Z 16018G24KT 21/21 A30 RMK A01 T02070205  RH  098%=      5-min Rain = 0
KAM1 252041Z 15016KT 21/20 A2999 RMK A01 T02070198  RH  094%=      5-min Rain = 0
KAM1 252042Z 15017KT 21/20 A2999 RMK A01 T02070195  RH  093%=      5-min Rain = 0
KAM1 252043Z 15017KT 21/19 A2999 RMK A01 T02070187  RH  088%=      5-min Rain = 0
KAM1 252044Z 16014KT 21/19 A2999 RMK A01 T02070186  RH  088%=      5-min Rain = 0
KAM1 252045Z 16016KT 21/18 A2999 RMK A01 T02060184  RH  087%=      5-min Rain = 0
KAM1 252046Z 16016KT 21/18 A2998 RMK A01 T02060180  RH  085%=      5-min Rain = 0
KAM1 252047Z 16014KT 21/18 A2998 RMK A01 T02060176  RH  083%=      5-min Rain = 0
KAM1 252048Z 15013KT 21/18 A2998 RMK A01 T02050175  RH  083%=      5-min Rain = 0
KAM1 252049Z 15013KT 21/18 A2998 RMK A01 T02050175  RH  082%=      5-min Rain = 0
KAM1 252050Z 15012KT 21/17 A2998 RMK A01 T02060174  RH  082%=      5-min Rain = 0
KAM1 252051Z 15013KT 21/17 A2998 RMK A01 T02060174  RH  082%=      5-min Rain = 0
KAM1 252052Z 14011KT 21/18 A2998 RMK A01 T02070175  RH  082%=      5-min Rain = 0
KAM1 252053Z 14012KT 21/17 A2997 RMK A01 T02070172  RH  081%=      5-min Rain = 0
KAM1 252054Z 14012KT 21/17 A2997 RMK A01 T02080170  RH  079%=      5-min Rain = 0
KAM1 252055Z 14012KT 21/17 A2998 RMK A01 T02080170  RH  079%=      5-min Rain = 0
KAM1 252056Z 14012KT 21/17 A2998 RMK A01 T02080173  RH  080%=      5-min Rain = 0
KAM1 252057Z 14013KT 21/17 A2998 RMK A01 T02080170  RH  079%=      5-min Rain = 0
KAM1 252058Z 14012KT 21/17 A2998 RMK A01 T02080169  RH  079%=      5-min Rain = 0
KAM1 252059Z 15012KT 21/17 A2998 RMK A01 T02070166  RH  077%=      5-min Rain = 0
KAM1 252100Z 14011KT 21/17 A2999 RMK A01 T02070166  RH  077%=      5-min Rain = 0
KAM1 252101Z 14009KT 21/17 A2999 RMK A01 T02070170  RH  079%=      5-min Rain = 0
KAM1 252102Z 15007KT 21/17 A30 RMK A01 T02070173  RH  081%=      5-min Rain = 0
KAM1 252103Z 15009KT 21/18 A30 RMK A01 T02080175  RH  081%=      5-min Rain = 0
KAM1 252104Z 15009KT 21/18 A30 RMK A01 T02080175  RH  081%=      5-min Rain = 0
KAM1 252105Z 16009KT 21/18 A3001 RMK A01 T02090176  RH  081%=      5-min Rain = 0
KAM1 252106Z 16009KT 21/18 A3001 RMK A01 T02090175  RH  081%=      5-min Rain = 0
KAM1 252107Z 17007KT 21/18 A3001 RMK A01 T02090177  RH  082%=      5-min Rain = 0
KAM1 252108Z 17009KT 21/18 A3001 RMK A01 T02090182  RH  085%=      5-min Rain = 0
KAM1 252109Z 17007KT 21/18 A3001 RMK A01 T02090183  RH  085%=      5-min Rain = 0
KAM1 252110Z 18008KT 21/19 A3001 RMK A01 T02080185  RH  087%=      5-min Rain = 0
KAM1 252111Z 17006KT 21/18 A3001 RMK A01 T02080184  RH  087%=      5-min Rain = 0
KAM1 252112Z 16005KT 21/19 A3001 RMK A01 T02070185  RH  087%=      5-min Rain = 0
KAM1 252113Z 17007KT 21/19 A3001 RMK A01 T02060185  RH  087%=      5-min Rain = 0
KAM1 252114Z 17005KT 21/19 A3001 RMK A01 T02060189  RH  090%=      5-min Rain = 0
KAM1 252115Z 17006KT 21/19 A3001 RMK A01 T02060191  RH  091%=      5-min Rain = 0
KAM1 252116Z 15004KT 21/19 A3001 RMK A01 T02060190  RH  091%=      5-min Rain = 0
KAM1 252117Z 16006KT 21/19 A30 RMK A01 T02060193  RH  092%=      5-min Rain = 0
KAM1 252118Z 17006KT 21/19 A3001 RMK A01 T02060194  RH  093%=      5-min Rain = 0
KAM1 252119Z 17007KT 21/19 A3001 RMK A01 T02060194  RH  093%=      5-min Rain = 0
KAM1 252120Z 15007KT 21/20 A3001 RMK A01 T02060197  RH  094%=      5-min Rain = 0
KAM1 252121Z 16006KT 21/20 A30 RMK A01 T02060198  RH  095%=      5-min Rain = 0
KAM1 252122Z 14005KT 21/20 A3001 RMK A01 T02070199  RH  095%=      5-min Rain = 0
KAM1 252123Z 16007KT 21/20 A3001 RMK A01 T02070199  RH  095%=      5-min Rain = 0
KAM1 252124Z 18006KT 21/20 A3001 RMK A01 T02080199  RH  095%=      5-min Rain = 0
KAM1 252125Z 19006KT 21/20 A3002 RMK A01 T02080199  RH  094%=      5-min Rain = 0
KAM1 252126Z 21006KT 21/20 A3002 RMK A01 T02080199  RH  095%=      5-min Rain = 0
KAM1 252127Z 22005KT 21/20 A3002 RMK A01 T02080200  RH  095%=      5-min Rain = 0
KAM1 252128Z 24004KT 21/20 A3002 RMK A01 T02090201  RH  095%=      5-min Rain = 0
KAM1 252129Z 23005KT 21/20 A3002 RMK A01 T02100201  RH  094%=      5-min Rain = 0
KAM1 252130Z 20004KT 21/20 A3002 RMK A01 T02110199  RH  093%=      5-min Rain = 0
KAM1 252131Z 22003KT 21/20 A3001 RMK A01 T02120201  RH  093%=      5-min Rain = 0
KAM1 252132Z 23003KT 21/20 A3001 RMK A01 T02120201  RH  093%=      5-min Rain = 0
KAM1 252133Z 26002KT 21/20 A3001 RMK A01 T02130201  RH  093%=      5-min Rain = 0
KAM1 252134Z 31005G11KT 21/20 A3001 RMK A01 T02130199  RH  092%=      5-min Rain = 0
KAM1 252135Z 32011KT 21/18 A3001 RMK A01 T02110176  RH  080%=      5-min Rain = 0
KAM1 252136Z 32010KT 20/16 A30 RMK A01 T02030162  RH  077%=      5-min Rain = 0
KAM1 252137Z 33008KT 20/16 A30 RMK A01 T01980162  RH  080%=      5-min Rain = 0
KAM1 252138Z 34010KT 19/16 A30 RMK A01 T01940160  RH  081%=      5-min Rain = 0
KAM1 252139Z 36012KT 19/15 A30 RMK A01 T01900153  RH  079%=      5-min Rain = 0
KAM1 252140Z 00010KT 19/15 A30 RMK A01 T01860151  RH  080%=      5-min Rain = 0
KAM1 252141Z 01009KT 18/15 A30 RMK A01 T01830151  RH  082%=      5-min Rain = 0
KAM1 252142Z 01007KT 18/15 A30 RMK A01 T01810152  RH  084%=      5-min Rain = 0
KAM1 252143Z 01007KT 18/15 A30 RMK A01 T01790153  RH  085%=      5-min Rain = 0
KAM1 252144Z 02007KT 18/15 A30 RMK A01 T01780152  RH  085%=      5-min Rain = 0
KAM1 252145Z 03007KT 18/15 A2999 RMK A01 T01770154  RH  086%=      5-min Rain = 0
KAM1 252146Z 04006KT 18/15 A2999 RMK A01 T01760154  RH  087%=      5-min Rain = 0
KAM1 252147Z 04006KT 17/15 A2999 RMK A01 T01740154  RH  088%=      5-min Rain = 0
KAM1 252148Z 04005KT 17/16 A2999 RMK A01 T01730157  RH  090%=      5-min Rain = 0
KAM1 252149Z 05005KT 17/16 A2999 RMK A01 T01720160  RH  092%=      5-min Rain = 0
KAM1 252150Z 05005KT 17/16 A2999 RMK A01 T01720161  RH  093%=      5-min Rain = 0
KAM1 252151Z 07007KT 17/16 A2999 RMK A01 T01710161  RH  094%=      5-min Rain = 0.01
KAM1 252152Z 07007KT 17/16 A2999 RMK A01 T01700159  RH  093%=      5-min Rain = 0
KAM1 252153Z 10007KT 17/16 A30 RMK A01 T01690161  RH  095%=      5-min Rain = 0
KAM1 252154Z 13006KT 17/16 A30 RMK A01 T01680162  RH  096%=      5-min Rain = 0
KAM1 252155Z 12005KT 17/16 A30 RMK A01 T01680163  RH  097%=      5-min Rain = 0
KAM1 252156Z 10006KT 17/16 A30 RMK A01 T01670163  RH  098%=      5-min Rain = 0
KAM1 252157Z 11004KT 17/16 A30 RMK A01 T01670162  RH  097%=      5-min Rain = 0
KAM1 252158Z 13004KT 17/17 A30 RMK A01 T01670165  RH  099%=      5-min Rain = 0
KAM1 252159Z 11002KT 17/17 A30 RMK A01 T01680168  RH  100%=      5-min Rain = 0
KAM1 252200Z 10005KT 17/16 A30 RMK A01 T01700164  RH  096%=      5-min Rain = 0
KAM1 252201Z 11005KT 17/17 A30 RMK A01 T01700165  RH  097%=      5-min Rain = 0
KAM1 252202Z 11008KT 17/17 A30 RMK A01 T01690168  RH  099%=      5-min Rain = 0
KAM1 252203Z 09008KT 17/17 A2999 RMK A01 T01680167  RH  099%=      5-min Rain = 0.01
KAM1 252204Z 10009KT 17/17 A2999 RMK A01 T01680167  RH  099%=      5-min Rain = 0
KAM1 252205Z 12008KT 17/17 A2999 RMK A01 T01670167  RH  100%=      5-min Rain = 0
KAM1 252206Z 13010KT 17/17 A2999 RMK A01 T01670167  RH  100%=      5-min Rain = 0
KAM1 252207Z 14009KT 17/17 A30 RMK A01 T01660166  RH  100%=      5-min Rain = 0
KAM1 252208Z 15011G16KT 17/17 A30 RMK A01 T01660166  RH  100%=      5-min Rain = 0
KAM1 252209Z 16012KT 17/17 A30 RMK A01 T01660166  RH  100%=      5-min Rain = 0.01
KAM1 252210Z 17013KT 17/17 A30 RMK A01 T01660166  RH  100%=      5-min Rain = 0.01
KAM1 252211Z 18015KT 17/17 A3001 RMK A01 T01660166  RH  100%=      5-min Rain = 0.02
KAM1 252212Z 18015KT 17/17 A3001 RMK A01 T01660166  RH  100%=      5-min Rain = 0.01
KAM1 252213Z 18012KT 16/16 A3001 RMK A01 T01640164  RH  100%=      5-min Rain = 0.02
KAM1 252214Z 19011KT 16/16 A3001 RMK A01 T01630163  RH  100%=      5-min Rain = 0.02
KAM1 252215Z 18008KT 16/16 A30 RMK A01 T01620162  RH  100%=      5-min Rain = 0.02
KAM1 252216Z 17009KT 16/16 A2999 RMK A01 T01610161  RH  100%=      5-min Rain = 0.02
KAM1 252217Z 17009KT 16/16 A30 RMK A01 T01600160  RH  100%=      5-min Rain = 0
KAM1 252218Z 17009KT 16/16 A30 RMK A01 T01590160  RH  100%=      5-min Rain = 0.01
KAM1 252219Z 17007KT 16/16 A2999 RMK A01 T01590159  RH  100%=      5-min Rain = 0.02
KAM1 252220Z 15005KT 16/16 A2997 RMK A01 T01590159  RH  100%=      5-min Rain = 0.01
KAM1 252221Z 13004KT 16/16 A2996 RMK A01 T01590159  RH  100%=      5-min Rain = 0.02
KAM1 252222Z 10003KT 16/16 A2996 RMK A01 T01590159  RH  100%=      5-min Rain = 0.01
KAM1 252223Z 11005KT 16/16 A2996 RMK A01 T01600160  RH  100%=      5-min Rain = 0.01
KAM1 252224Z 13005KT 16/16 A2996 RMK A01 T01610161  RH  100%=      5-min Rain = 0
KAM1 252225Z 11005KT 16/16 A2996 RMK A01 T01620162  RH  100%=      5-min Rain = 0
KAM1 252226Z 11006KT 16/16 A2996 RMK A01 T01620162  RH  100%=      5-min Rain = 0
KAM1 252227Z 12005KT 16/16 A2996 RMK A01 T01620162  RH  100%=      5-min Rain = 0
KAM1 252228Z 12004KT 16/16 A2996 RMK A01 T01620162  RH  100%=      5-min Rain = 0
KAM1 252229Z 12003KT 16/16 A2996 RMK A01 T01620162  RH  100%=      5-min Rain = 0
KAM1 252230Z 15004KT 16/16 A2997 RMK A01 T01620162  RH  100%=      5-min Rain = 0
KAM1 252231Z 15006KT 16/16 A2998 RMK A01 T01620162  RH  100%=      5-min Rain = 0
KAM1 252232Z 16007KT 16/16 A2998 RMK A01 T01630163  RH  100%=      5-min Rain = 0
KAM1 252233Z 15010KT 16/16 A2998 RMK A01 T01630163  RH  100%=      5-min Rain = 0
KAM1 252234Z 15011KT 16/16 A2998 RMK A01 T01630164  RH  100%=      5-min Rain = 0.01
KAM1 252235Z 16010KT 16/16 A2997 RMK A01 T01640164  RH  100%=      5-min Rain = 0.01
KAM1 252236Z 15009KT 16/16 A2997 RMK A01 T01640164  RH  100%=      5-min Rain = 0
KAM1 252237Z 15008KT 16/16 A2997 RMK A01 T01640164  RH  100%=      5-min Rain = 0
KAM1 252238Z 15009KT 16/16 A2997 RMK A01 T01630164  RH  100%=      5-min Rain = 0
KAM1 252239Z 15008KT 16/16 A2997 RMK A01 T01640164  RH  100%=      5-min Rain = 0
KAM1 252240Z 15008KT 16/16 A2997 RMK A01 T01630163  RH  100%=      5-min Rain = 0
KAM1 252241Z 16008KT 16/16 A2997 RMK A01 T01630163  RH  100%=      5-min Rain = 0.01
KAM1 252242Z 15006KT 16/16 A2996 RMK A01 T01630164  RH  100%=      5-min Rain = 0
KAM1 252243Z 15005KT 16/16 A2996 RMK A01 T01640164  RH  100%=      5-min Rain = 0
KAM1 252244Z 15005KT 17/17 A2996 RMK A01 T01650165  RH  100%=      5-min Rain = 0
KAM1 252245Z 16006KT 17/17 A2996 RMK A01 T01660166  RH  100%=      5-min Rain = 0
KAM1 252246Z 15006KT 17/17 A2996 RMK A01 T01660166  RH  100%=      5-min Rain = 0
KAM1 252247Z 16005KT 17/17 A2996 RMK A01 T01670167  RH  100%=      5-min Rain = 0
KAM1 252248Z 16006KT 17/17 A2996 RMK A01 T01670168  RH  100%=      5-min Rain = 0
KAM1 252249Z 16006KT 17/17 A2996 RMK A01 T01680168  RH  100%=      5-min Rain = 0
KAM1 252250Z 16006KT 17/17 A2996 RMK A01 T01690169  RH  100%=      5-min Rain = 0
KAM1 252251Z 17006KT 17/17 A2996 RMK A01 T01710171  RH  100%=      5-min Rain = 0
KAM1 252252Z 16006KT 17/17 A2996 RMK A01 T01720172  RH  100%=      5-min Rain = 0
KAM1 252253Z 17007KT 17/17 A2996 RMK A01 T01730173  RH  100%=      5-min Rain = 0
KAM1 252254Z 17007KT 18/18 A2996 RMK A01 T01750175  RH  100%=      5-min Rain = 0
KAM1 252255Z 18007KT 18/18 A2996 RMK A01 T01760176  RH  100%=      5-min Rain = 0
KAM1 252256Z 18008KT 18/18 A2996 RMK A01 T01770177  RH  100%=      5-min Rain = 0
KAM1 252257Z 17008KT 18/18 A2996 RMK A01 T01780178  RH  100%=      5-min Rain = 0
KAM1 252258Z 17009KT 18/18 A2996 RMK A01 T01790177  RH  099%=      5-min Rain = 0
KAM1 252259Z 16010KT 18/18 A2996 RMK A01 T01790177  RH  099%=      5-min Rain = 0
KAM1 252300Z 15010KT 18/18 A2996 RMK A01 T01800178  RH  099%=      5-min Rain = 0
KAM1 252301Z 14012KT 18/18 A2996 RMK A01 T01800179  RH  100%=      5-min Rain = 0
KAM1 252302Z 13012KT 18/18 A2996 RMK A01 T01790179  RH  100%=      5-min Rain = 0
KAM1 252303Z 13012KT 18/18 A2996 RMK A01 T01780177  RH  099%=      5-min Rain = 0
KAM1 252304Z 13010KT 18/18 A2996 RMK A01 T01770177  RH  100%=      5-min Rain = 0
KAM1 252305Z 13012KT 18/18 A2996 RMK A01 T01760176  RH  100%=      5-min Rain = 0
KAM1 252306Z 12013KT 18/18 A2996 RMK A01 T01760177  RH  100%=      5-min Rain = 0
KAM1 252307Z 12012KT 18/18 A2995 RMK A01 T01780178  RH  100%=      5-min Rain = 0
KAM1 252308Z 12014KT 18/18 A2995 RMK A01 T01800180  RH  100%=      5-min Rain = 0
KAM1 252309Z 12014KT 18/18 A2995 RMK A01 T01810182  RH  100%=      5-min Rain = 0
KAM1 252310Z 12015KT 18/18 A2995 RMK A01 T01830183  RH  100%=      5-min Rain = 0
KAM1 252311Z 12015KT 18/18 A2995 RMK A01 T01840184  RH  099%=      5-min Rain = 0
KAM1 252312Z 12018KT 19/18 A2995 RMK A01 T01850184  RH  099%=      5-min Rain = 0
KAM1 252313Z 12015KT 19/19 A2995 RMK A01 T01860186  RH  100%=      5-min Rain = 0
KAM1 252314Z 12016KT 19/19 A2995 RMK A01 T01880188  RH  100%=      5-min Rain = 0
KAM1 252315Z 12015KT 19/19 A2995 RMK A01 T01890189  RH  100%=      5-min Rain = 0
KAM1 252316Z 12014KT 19/19 A2994 RMK A01 T01900190  RH  100%=      5-min Rain = 0
KAM1 252317Z 12016KT 19/19 A2995 RMK A01 T01900190  RH  100%=      5-min Rain = 0
KAM1 252318Z 12016KT 19/19 A2995 RMK A01 T01910185  RH  096%=      5-min Rain = 0
KAM1 252319Z 12014KT 19/19 A2995 RMK A01 T01900185  RH  097%=      5-min Rain = 0
KAM1 252320Z 12015KT 19/18 A2995 RMK A01 T01900183  RH  096%=      5-min Rain = 0
KAM1 252321Z 12015KT 19/18 A2995 RMK A01 T01900181  RH  094%=      5-min Rain = 0
KAM1 252322Z 12012KT 19/19 A2995 RMK A01 T01910186  RH  097%=      5-min Rain = 0
KAM1 252323Z 12015KT 19/18 A2995 RMK A01 T01920182  RH  094%=      5-min Rain = 0
KAM1 252324Z 13012KT 19/18 A2995 RMK A01 T01930179  RH  092%=      5-min Rain = 0
KAM1 252325Z 13013KT 19/18 A2995 RMK A01 T01940182  RH  093%=      5-min Rain = 0
KAM1 252326Z 13014KT 20/18 A2995 RMK A01 T01950178  RH  090%=      5-min Rain = 0
KAM1 252327Z 13014KT 20/18 A2995 RMK A01 T01950177  RH  089%=      5-min Rain = 0
KAM1 252328Z 13015KT 20/18 A2996 RMK A01 T01950176  RH  089%=      5-min Rain = 0
KAM1 252329Z 13014KT 19/18 A2996 RMK A01 T01940175  RH  089%=      5-min Rain = 0
KAM1 252330Z 14014KT 20/18 A2996 RMK A01 T01950177  RH  090%=      5-min Rain = 0
KAM1 252331Z 13012KT 20/18 A2996 RMK A01 T01950179  RH  091%=      5-min Rain = 0
KAM1 252332Z 14013KT 20/18 A2996 RMK A01 T01960182  RH  092%=      5-min Rain = 0
KAM1 252333Z 14013KT 20/18 A2996 RMK A01 T01970178  RH  089%=      5-min Rain = 0
KAM1 252334Z 14012KT 20/18 A2996 RMK A01 T01960179  RH  090%=      5-min Rain = 0
KAM1 252335Z 14012KT 20/18 A2996 RMK A01 T01960177  RH  089%=      5-min Rain = 0
KAM1 252336Z 14012KT 20/18 A2996 RMK A01 T01950176  RH  089%=      5-min Rain = 0
KAM1 252337Z 14012KT 19/18 A2996 RMK A01 T01940179  RH  091%=      5-min Rain = 0
KAM1 252338Z 14013KT 19/18 A2996 RMK A01 T01940179  RH  091%=      5-min Rain = 0
KAM1 252339Z 14013KT 19/18 A2996 RMK A01 T01940176  RH  090%=      5-min Rain = 0
KAM1 252340Z 14012KT 19/18 A2996 RMK A01 T01940177  RH  090%=      5-min Rain = 0
KAM1 252341Z 14012KT 19/18 A2996 RMK A01 T01930176  RH  090%=      5-min Rain = 0
KAM1 252342Z 14014KT 19/17 A2996 RMK A01 T01930174  RH  089%=      5-min Rain = 0
KAM1 252343Z 14013KT 19/18 A2995 RMK A01 T01940175  RH  089%=      5-min Rain = 0
KAM1 252344Z 14012KT 19/18 A2995 RMK A01 T01940176  RH  089%=      5-min Rain = 0
KAM1 252345Z 14011KT 19/18 A2995 RMK A01 T01940175  RH  089%=      5-min Rain = 0
KAM1 252346Z 14012KT 19/18 A2995 RMK A01 T01940177  RH  090%=      5-min Rain = 0
KAM1 252347Z 13011KT 19/18 A2995 RMK A01 T01930175  RH  089%=      5-min Rain = 0
KAM1 252348Z 14011KT 19/17 A2995 RMK A01 T01930174  RH  089%=      5-min Rain = 0
KAM1 252349Z 14013KT 19/17 A2995 RMK A01 T01920173  RH  089%=      5-min Rain = 0
KAM1 252350Z 14013KT 19/17 A2995 RMK A01 T01910172  RH  089%=      5-min Rain = 0
KAM1 252351Z 14012KT 19/17 A2995 RMK A01 T01900172  RH  089%=      5-min Rain = 0
KAM1 252352Z 14013KT 19/17 A2995 RMK A01 T01890173  RH  090%=      5-min Rain = 0
KAM1 252353Z 14010KT 19/17 A2995 RMK A01 T01880174  RH  092%=      5-min Rain = 0
KAM1 252354Z 14011KT 19/18 A2996 RMK A01 T01870175  RH  093%=      5-min Rain = 0
KAM1 252355Z 14013KT 19/18 A2996 RMK A01 T01870176  RH  093%=      5-min Rain = 0
KAM1 252356Z 14012KT 19/18 A2996 RMK A01 T01860175  RH  093%=      5-min Rain = 0
KAM1 252357Z 14011KT 19/18 A2996 RMK A01 T01860176  RH  093%=      5-min Rain = 0
KAM1 252358Z 14012KT 19/18 A2996 RMK A01 T01860175  RH  093%=      5-min Rain = 0
KAM1 252359Z 14012KT 19/17 A2996 RMK A01 T01870174  RH  092%=      5-min Rain = 0
KAM1 260000Z 14010KT 19/18 A2996 RMK A01 T01880176  RH  093%=      5-min Rain = 0
KAM1 260001Z 14011KT 19/18 A2996 RMK A01 T01880176  RH  093%=      5-min Rain = 0
KAM1 260002Z 14011KT 19/18 A2996 RMK A01 T01880175  RH  092%=      5-min Rain = 0
KAM1 260003Z 14012KT 19/18 A2996 RMK A01 T01890177  RH  093%=      5-min Rain = 0
KAM1 260004Z 14012KT 19/18 A2996 RMK A01 T01900177  RH  092%=      5-min Rain = 0
KAM1 260005Z 15012KT 19/18 A2996 RMK A01 T01910178  RH  092%=      5-min Rain = 0
KAM1 260006Z 15014KT 19/18 A2996 RMK A01 T01920179  RH  092%=      5-min Rain = 0
KAM1 260007Z 15013KT 19/18 A2996 RMK A01 T01930178  RH  091%=      5-min Rain = 0
KAM1 260008Z 15013KT 19/18 A2997 RMK A01 T01940178  RH  091%=      5-min Rain = 0
KAM1 260009Z 15016KT 20/18 A2997 RMK A01 T01950178  RH  090%=      5-min Rain = 0
KAM1 260010Z 15016KT 20/18 A2997 RMK A01 T01960177  RH  089%=      5-min Rain = 0
KAM1 260011Z 15016KT 20/18 A2997 RMK A01 T01960176  RH  088%=      5-min Rain = 0
KAM1 260012Z 15015KT 20/18 A2997 RMK A01 T01970176  RH  087%=      5-min Rain = 0
KAM1 260013Z 15012KT 20/18 A2996 RMK A01 T01970178  RH  089%=      5-min Rain = 0
KAM1 260014Z 15014KT 20/18 A2996 RMK A01 T01980178  RH  089%=      5-min Rain = 0
KAM1 260015Z 15015KT 20/18 A2996 RMK A01 T01980177  RH  087%=      5-min Rain = 0
KAM1 260016Z 15016KT 20/17 A2996 RMK A01 T01990174  RH  086%=      5-min Rain = 0
KAM1 260017Z 15014KT 20/17 A2996 RMK A01 T01990174  RH  085%=      5-min Rain = 0
KAM1 260018Z 15012KT 20/18 A2996 RMK A01 T01990176  RH  087%=      5-min Rain = 0
KAM1 260019Z 15014KT 20/18 A2996 RMK A01 T01990175  RH  086%=      5-min Rain = 0
KAM1 260020Z 15013KT 20/17 A2996 RMK A01 T01990174  RH  085%=      5-min Rain = 0
KAM1 260021Z 15013KT 20/18 A2996 RMK A01 T01990175  RH  086%=      5-min Rain = 0
KAM1 260022Z 15013KT 20/18 A2996 RMK A01 T01990176  RH  086%=      5-min Rain = 0
KAM1 260023Z 15012KT 20/18 A2996 RMK A01 T01990176  RH  086%=      5-min Rain = 0
KAM1 260024Z 15014KT 20/18 A2995 RMK A01 T02000176  RH  086%=      5-min Rain = 0
KAM1 260025Z 15016KT 20/18 A2995 RMK A01 T02000176  RH  086%=      5-min Rain = 0
KAM1 260026Z 16015KT 20/18 A2995 RMK A01 T02010175  RH  085%=      5-min Rain = 0
KAM1 260027Z 16017KT 20/17 A2995 RMK A01 T02000173  RH  084%=      5-min Rain = 0
KAM1 260028Z 15018KT 20/17 A2995 RMK A01 T02000171  RH  083%=      5-min Rain = 0
KAM1 260029Z 15018KT 20/17 A2995 RMK A01 T02000170  RH  083%=      5-min Rain = 0
KAM1 260030Z 15014KT 20/17 A2995 RMK A01 T02000172  RH  084%=      5-min Rain = 0
KAM1 260031Z 16016KT 20/17 A2995 RMK A01 T02000172  RH  084%=      5-min Rain = 0
KAM1 260032Z 16016KT 20/17 A2995 RMK A01 T02000171  RH  083%=      5-min Rain = 0
KAM1 260033Z 15015G20KT 20/17 A2995 RMK A01 T02000171  RH  083%=      5-min Rain = 0
KAM1 260034Z 16016KT 20/17 A2995 RMK A01 T02000171  RH  083%=      5-min Rain = 0
KAM1 260035Z 16016KT 20/17 A2995 RMK A01 T02000169  RH  083%=      5-min Rain = 0
KAM1 260036Z 16011KT 20/17 A2995 RMK A01 T02000171  RH  083%=      5-min Rain = 0
KAM1 260037Z 16014KT 20/17 A2995 RMK A01 T02000172  RH  084%=      5-min Rain = 0
KAM1 260038Z 17013KT 20/17 A2995 RMK A01 T02000171  RH  083%=      5-min Rain = 0
KAM1 260039Z 16013KT 20/17 A2995 RMK A01 T02010172  RH  083%=      5-min Rain = 0
KAM1 260040Z 16011KT 20/17 A2995 RMK A01 T02010171  RH  083%=      5-min Rain = 0
KAM1 260041Z 17016G21KT 20/17 A2995 RMK A01 T02010172  RH  083%=      5-min Rain = 0
KAM1 260042Z 17017KT 20/17 A2995 RMK A01 T02010169  RH  082%=      5-min Rain = 0
KAM1 260043Z 17013G19KT 20/17 A2995 RMK A01 T02010171  RH  083%=      5-min Rain = 0
KAM1 260044Z 17015G20KT 20/17 A2995 RMK A01 T02000173  RH  084%=      5-min Rain = 0
KAM1 260045Z 16016KT 20/17 A2995 RMK A01 T02010168  RH  081%=      5-min Rain = 0
KAM1 260046Z 17018KT 20/17 A2995 RMK A01 T02010167  RH  081%=      5-min Rain = 0
KAM1 260047Z 17015KT 20/17 A2996 RMK A01 T02010167  RH  080%=      5-min Rain = 0
KAM1 260048Z 17017G22KT 20/17 A2996 RMK A01 T02020169  RH  081%=      5-min Rain = 0
KAM1 260049Z 17017KT 20/17 A2996 RMK A01 T02020169  RH  081%=      5-min Rain = 0
KAM1 260050Z 17016KT 20/17 A2995 RMK A01 T02020168  RH  081%=      5-min Rain = 0
KAM1 260051Z 17016KT 20/17 A2995 RMK A01 T02010167  RH  081%=      5-min Rain = 0
KAM1 260052Z 17013KT 20/17 A2995 RMK A01 T02000168  RH  081%=      5-min Rain = 0
KAM1 260053Z 16014KT 20/17 A2995 RMK A01 T02000168  RH  082%=      5-min Rain = 0
KAM1 260054Z 16015KT 20/17 A2994 RMK A01 T01990168  RH  082%=      5-min Rain = 0
KAM1 260055Z 16014KT 20/17 A2994 RMK A01 T01990166  RH  082%=      5-min Rain = 0
KAM1 260056Z 16013KT 20/17 A2994 RMK A01 T01980167  RH  082%=      5-min Rain = 0
KAM1 260057Z 15016KT 20/17 A2994 RMK A01 T01970168  RH  083%=      5-min Rain = 0
KAM1 260058Z 17015KT 20/17 A2994 RMK A01 T01960168  RH  084%=      5-min Rain = 0
KAM1 260059Z 17017KT 20/17 A2994 RMK A01 T01960167  RH  083%=      5-min Rain = 0
KAM1 260100Z 16016KT 20/17 A2994 RMK A01 T01950166  RH  083%=      5-min Rain = 0
KAM1 260101Z 15014KT 20/17 A2993 RMK A01 T01950166  RH  083%=      5-min Rain = 0
KAM1 260102Z 15014KT 20/17 A2993 RMK A01 T01950168  RH  084%=      5-min Rain = 0
KAM1 260103Z 16016KT 19/17 A2993 RMK A01 T01940167  RH  085%=      5-min Rain = 0
KAM1 260104Z 17016KT 19/17 A2994 RMK A01 T01930166  RH  084%=      5-min Rain = 0
KAM1 260105Z 17015KT 19/17 A2994 RMK A01 T01930167  RH  085%=      5-min Rain = 0
KAM1 260106Z 16015KT 19/17 A2994 RMK A01 T01920167  RH  085%=      5-min Rain = 0
KAM1 260107Z 16013KT 19/17 A2993 RMK A01 T01920167  RH  085%=      5-min Rain = 0
KAM1 260108Z 16012KT 19/17 A2993 RMK A01 T01910167  RH  086%=      5-min Rain = 0
KAM1 260109Z 16011KT 19/17 A2993 RMK A01 T01910167  RH  086%=      5-min Rain = 0
KAM1 260110Z 16012KT 19/17 A2993 RMK A01 T01900167  RH  086%=      5-min Rain = 0
KAM1 260111Z 17012KT 19/17 A2993 RMK A01 T01900166  RH  086%=      5-min Rain = 0
KAM1 260112Z 16010KT 19/17 A2993 RMK A01 T01900167  RH  087%=      5-min Rain = 0
KAM1 260113Z 16012KT 19/17 A2993 RMK A01 T01890167  RH  087%=      5-min Rain = 0
KAM1 260114Z 16013KT 19/17 A2993 RMK A01 T01890166  RH  086%=      5-min Rain = 0
KAM1 260115Z 16012KT 19/17 A2993 RMK A01 T01890166  RH  086%=      5-min Rain = 0
KAM1 260116Z 16013KT 19/17 A2993 RMK A01 T01890166  RH  086%=      5-min Rain = 0
KAM1 260117Z 16013KT 19/17 A2993 RMK A01 T01890165  RH  086%=      5-min Rain = 0
KAM1 260118Z 16011KT 19/17 A2993 RMK A01 T01890166  RH  086%=      5-min Rain = 0
KAM1 260119Z 16011KT 19/17 A2993 RMK A01 T01880166  RH  087%=      5-min Rain = 0
KAM1 260120Z 16012KT 19/17 A2993 RMK A01 T01870167  RH  088%=      5-min Rain = 0
KAM1 260121Z 16013KT 19/17 A2994 RMK A01 T01870167  RH  088%=      5-min Rain = 0
KAM1 260122Z 16013KT 19/17 A2994 RMK A01 T01860167  RH  088%=      5-min Rain = 0
KAM1 260123Z 17013KT 19/17 A2994 RMK A01 T01860166  RH  088%=      5-min Rain = 0
KAM1 260124Z 17011KT 19/17 A2994 RMK A01 T01860167  RH  089%=      5-min Rain = 0
KAM1 260125Z 17011KT 19/17 A2994 RMK A01 T01850168  RH  090%=      5-min Rain = 0
KAM1 260126Z 17013KT 19/17 A2994 RMK A01 T01850168  RH  090%=      5-min Rain = 0
KAM1 260127Z 17013KT 18/17 A2994 RMK A01 T01840168  RH  090%=      5-min Rain = 0
KAM1 260128Z 16011KT 18/17 A2994 RMK A01 T01840168  RH  090%=      5-min Rain = 0
KAM1 260129Z 16011KT 18/17 A2994 RMK A01 T01840169  RH  091%=      5-min Rain = 0
KAM1 260130Z 17010KT 18/17 A2994 RMK A01 T01830169  RH  091%=      5-min Rain = 0
KAM1 260131Z 16009KT 18/17 A2994 RMK A01 T01820169  RH  092%=      5-min Rain = 0
KAM1 260132Z 17010KT 18/17 A2994 RMK A01 T01820170  RH  093%=      5-min Rain = 0
KAM1 260133Z 17008KT 18/17 A2994 RMK A01 T01810170  RH  093%=      5-min Rain = 0
KAM1 260134Z 17009KT 18/17 A2994 RMK A01 T01810170  RH  093%=      5-min Rain = 0
KAM1 260135Z 17009KT 18/17 A2994 RMK A01 T01800170  RH  093%=      5-min Rain = 0
KAM1 260136Z 17008KT 18/17 A2994 RMK A01 T01800169  RH  093%=      5-min Rain = 0
KAM1 260137Z 17009KT 18/17 A2994 RMK A01 T01800170  RH  094%=      5-min Rain = 0
KAM1 260138Z 16009KT 18/17 A2994 RMK A01 T01790170  RH  094%=      5-min Rain = 0
KAM1 260139Z 16009KT 18/17 A2994 RMK A01 T01790170  RH  094%=      5-min Rain = 0
KAM1 260140Z 16009KT 18/17 A2994 RMK A01 T01790171  RH  095%=      5-min Rain = 0
KAM1 260141Z 16009KT 18/17 A2994 RMK A01 T01790171  RH  095%=      5-min Rain = 0
KAM1 260142Z 16009KT 18/17 A2994 RMK A01 T01780171  RH  096%=      5-min Rain = 0
KAM1 260143Z 16009KT 18/17 A2994 RMK A01 T01780171  RH  096%=      5-min Rain = 0
KAM1 260144Z 15011KT 18/17 A2995 RMK A01 T01780171  RH  096%=      5-min Rain = 0
KAM1 260145Z 15012KT 18/17 A2995 RMK A01 T01770172  RH  096%=      5-min Rain = 0
KAM1 260146Z 15010KT 18/17 A2995 RMK A01 T01770172  RH  097%=      5-min Rain = 0
KAM1 260147Z 15010KT 18/17 A2995 RMK A01 T01770173  RH  098%=      5-min Rain = 0
KAM1 260148Z 16008KT 18/17 A2995 RMK A01 T01770173  RH  098%=      5-min Rain = 0
KAM1 260149Z 16010KT 18/17 A2995 RMK A01 T01770174  RH  098%=      5-min Rain = 0
KAM1 260150Z 16011KT 18/17 A2994 RMK A01 T01770173  RH  098%=      5-min Rain = 0
KAM1 260151Z 17008KT 18/17 A2994 RMK A01 T01770173  RH  098%=      5-min Rain = 0
KAM1 260152Z 16009KT 18/17 A2995 RMK A01 T01770173  RH  098%=      5-min Rain = 0
KAM1 260153Z 15011KT 18/17 A2995 RMK A01 T01770174  RH  098%=      5-min Rain = 0
KAM1 260154Z 16011KT 18/17 A2995 RMK A01 T01770174  RH  098%=      5-min Rain = 0
KAM1 260155Z 16009KT 18/17 A2995 RMK A01 T01770174  RH  098%=      5-min Rain = 0
KAM1 260156Z 16011KT 18/17 A2995 RMK A01 T01780173  RH  097%=      5-min Rain = 0
KAM1 260157Z 16011KT 18/17 A2995 RMK A01 T01780173  RH  097%=      5-min Rain = 0
KAM1 260158Z 16012KT 18/17 A2995 RMK A01 T01790173  RH  097%=      5-min Rain = 0
KAM1 260159Z 15012KT 18/17 A2995 RMK A01 T01800174  RH  096%=      5-min Rain = 0
KAM1 260200Z 15011KT 18/17 A2995 RMK A01 T01800174  RH  096%=      5-min Rain = 0
KAM1 260201Z 15011KT 18/17 A2995 RMK A01 T01800174  RH  096%=      5-min Rain = 0
KAM1 260202Z 15012KT 18/17 A2995 RMK A01 T01800174  RH  096%=      5-min Rain = 0
KAM1 260203Z 15009KT 18/17 A2995 RMK A01 T01800174  RH  096%=      5-min Rain = 0
KAM1 260204Z 15011KT 18/17 A2995 RMK A01 T01800174  RH  096%=      5-min Rain = 0
KAM1 260205Z 15010KT 18/17 A2995 RMK A01 T01800174  RH  096%=      5-min Rain = 0
KAM1 260206Z 15010KT 18/17 A2995 RMK A01 T01790174  RH  097%=      5-min Rain = 0
KAM1 260207Z 15010KT 18/18 A2995 RMK A01 T01790175  RH  097%=      5-min Rain = 0
KAM1 260208Z 15011KT 18/18 A2995 RMK A01 T01800175  RH  097%=      5-min Rain = 0
KAM1 260209Z 15011KT 18/18 A2995 RMK A01 T01790175  RH  097%=      5-min Rain = 0
KAM1 260210Z 15009KT 18/18 A2995 RMK A01 T01790175  RH  097%=      5-min Rain = 0
KAM1 260211Z 15010KT 18/18 A2995 RMK A01 T01790175  RH  097%=      5-min Rain = 0
KAM1 260212Z 15010KT 18/18 A2995 RMK A01 T01800175  RH  097%=      5-min Rain = 0
KAM1 260213Z 15010KT 18/18 A2995 RMK A01 T01800175  RH  097%=      5-min Rain = 0
KAM1 260214Z 15010KT 18/18 A2995 RMK A01 T01790175  RH  097%=      5-min Rain = 0
KAM1 260215Z 15010KT 18/18 A2995 RMK A01 T01790175  RH  098%=      5-min Rain = 0
KAM1 260216Z 15009KT 18/18 A2995 RMK A01 T01780175  RH  098%=      5-min Rain = 0
KAM1 260217Z 15010KT 18/18 A2995 RMK A01 T01780175  RH  098%=      5-min Rain = 0
KAM1 260218Z 16010KT 18/18 A2995 RMK A01 T01780175  RH  098%=      5-min Rain = 0
KAM1 260219Z 16010KT 18/18 A2995 RMK A01 T01780175  RH  098%=      5-min Rain = 0
KAM1 260220Z 16009KT 18/18 A2994 RMK A01 T01780175  RH  098%=      5-min Rain = 0
KAM1 260221Z 15009KT 18/18 A2994 RMK A01 T01780175  RH  098%=      5-min Rain = 0
KAM1 260222Z 16009KT 18/18 A2994 RMK A01 T01780175  RH  098%=      5-min Rain = 0
KAM1 260223Z 16008KT 18/18 A2994 RMK A01 T01770175  RH  098%=      5-min Rain = 0
KAM1 260224Z 16009KT 18/18 A2994 RMK A01 T01770175  RH  099%=      5-min Rain = 0
KAM1 260225Z 16009KT 18/18 A2995 RMK A01 T01760175  RH  099%=      5-min Rain = 0
KAM1 260226Z 16009KT 18/18 A2995 RMK A01 T01760175  RH  099%=      5-min Rain = 0
KAM1 260227Z 16008KT 18/18 A2994 RMK A01 T01760175  RH  099%=      5-min Rain = 0
KAM1 260228Z 16009KT 18/18 A2994 RMK A01 T01760175  RH  099%=      5-min Rain = 0
KAM1 260229Z 16008KT 18/18 A2994 RMK A01 T01760175  RH  099%=      5-min Rain = 0
KAM1 260230Z 16008KT 18/18 A2994 RMK A01 T01760175  RH  099%=      5-min Rain = 0
KAM1 260231Z 15008KT 18/17 A2994 RMK A01 T01760174  RH  099%=      5-min Rain = 0
KAM1 260232Z 15008KT 18/17 A2994 RMK A01 T01750174  RH  099%=      5-min Rain = 0
KAM1 260233Z 15008KT 18/17 A2994 RMK A01 T01750174  RH  099%=      5-min Rain = 0
KAM1 260234Z 15007KT 18/17 A2994 RMK A01 T01750174  RH  099%=      5-min Rain = 0
KAM1 260235Z 15007KT 18/17 A2994 RMK A01 T01750174  RH  099%=      5-min Rain = 0
KAM1 260236Z 15008KT 17/17 A2994 RMK A01 T01740174  RH  100%=      5-min Rain = 0
KAM1 260237Z 15008KT 17/17 A2994 RMK A01 T01740174  RH  100%=      5-min Rain = 0
KAM1 260238Z 15008KT 17/17 A2994 RMK A01 T01730173  RH  100%=      5-min Rain = 0
KAM1 260239Z 16008KT 17/17 A2994 RMK A01 T01730173  RH  100%=      5-min Rain = 0
KAM1 260240Z 16008KT 17/17 A2994 RMK A01 T01730173  RH  100%=      5-min Rain = 0
KAM1 260241Z 16008KT 17/17 A2994 RMK A01 T01740172  RH  099%=      5-min Rain = 0
KAM1 260242Z 16008KT 17/17 A2994 RMK A01 T01740172  RH  099%=      5-min Rain = 0
KAM1 260243Z 16008KT 17/17 A2994 RMK A01 T01740172  RH  099%=      5-min Rain = 0
KAM1 260244Z 16008KT 17/17 A2994 RMK A01 T01740172  RH  099%=      5-min Rain = 0
KAM1 260245Z 16007KT 17/17 A2994 RMK A01 T01730172  RH  099%=      5-min Rain = 0
KAM1 260246Z 16007KT 17/17 A2994 RMK A01 T01730172  RH  100%=      5-min Rain = 0
KAM1 260247Z 15007KT 17/17 A2994 RMK A01 T01730172  RH  100%=      5-min Rain = 0
KAM1 260248Z 15007KT 17/17 A2994 RMK A01 T01720172  RH  100%=      5-min Rain = 0
KAM1 260249Z 16007KT 17/17 A2994 RMK A01 T01720172  RH  100%=      5-min Rain = 0
KAM1 260250Z 16007KT 17/17 A2994 RMK A01 T01720172  RH  100%=      5-min Rain = 0
KAM1 260251Z 16007KT 17/17 A2994 RMK A01 T01720172  RH  100%=      5-min Rain = 0
KAM1 260252Z 16007KT 17/17 A2994 RMK A01 T01720172  RH  100%=      5-min Rain = 0
KAM1 260253Z 16007KT 17/17 A2994 RMK A01 T01710171  RH  100%=      5-min Rain = 0
KAM1 260254Z 16007KT 17/17 A2994 RMK A01 T01710171  RH  100%=      5-min Rain = 0
KAM1 260255Z 16007KT 17/17 A2994 RMK A01 T01700171  RH  100%=      5-min Rain = 0
KAM1 260256Z 15007KT 17/17 A2994 RMK A01 T01700170  RH  100%=      5-min Rain = 0
KAM1 260257Z 16007KT 17/17 A2994 RMK A01 T01700170  RH  100%=      5-min Rain = 0
KAM1 260258Z 16007KT 17/17 A2994 RMK A01 T01700170  RH  100%=      5-min Rain = 0
KAM1 260259Z 16007KT 17/17 A2994 RMK A01 T01700170  RH  100%=      5-min Rain = 0
KAM1 260300Z 16007KT 17/17 A2994 RMK A01 T01700171  RH  100%=      5-min Rain = 0
KAM1 260301Z 16008KT 17/17 A2994 RMK A01 T01700170  RH  100%=      5-min Rain = 0
KAM1 260302Z 16007KT 17/17 A2994 RMK A01 T01700170  RH  100%=      5-min Rain = 0
KAM1 260303Z 16008KT 17/17 A2994 RMK A01 T01700170  RH  100%=      5-min Rain = 0
KAM1 260304Z 16007KT 17/17 A2994 RMK A01 T01690170  RH  100%=      5-min Rain = 0
KAM1 260305Z 16008KT 17/17 A2994 RMK A01 T01690169  RH  100%=      5-min Rain = 0
KAM1 260306Z 16008KT 17/17 A2994 RMK A01 T01690169  RH  100%=      5-min Rain = 0
KAM1 260307Z 16008KT 17/17 A2994 RMK A01 T01690170  RH  100%=      5-min Rain = 0
KAM1 260308Z 16008KT 17/17 A2994 RMK A01 T01690170  RH  100%=      5-min Rain = 0
KAM1 260309Z 16008KT 17/17 A2994 RMK A01 T01700170  RH  100%=      5-min Rain = 0
KAM1 260310Z 16008KT 17/17 A2995 RMK A01 T01700170  RH  100%=      5-min Rain = 0
KAM1 260311Z 16008KT 17/17 A2995 RMK A01 T01700170  RH  100%=      5-min Rain = 0
KAM1 260312Z 16008KT 17/17 A2995 RMK A01 T01700170  RH  100%=      5-min Rain = 0
KAM1 260313Z 16009KT 17/17 A2995 RMK A01 T01700170  RH  100%=      5-min Rain = 0
KAM1 260314Z 16009KT 17/17 A2995 RMK A01 T01710171  RH  100%=      5-min Rain = 0
KAM1 260315Z 16009KT 17/17 A2995 RMK A01 T01720172  RH  100%=      5-min Rain = 0
KAM1 260316Z 16009KT 17/17 A2995 RMK A01 T01720172  RH  100%=      5-min Rain = 0
KAM1 260317Z 16009KT 17/17 A2995 RMK A01 T01730173  RH  100%=      5-min Rain = 0
KAM1 260318Z 16009KT 17/17 A2995 RMK A01 T01730173  RH  100%=      5-min Rain = 0
KAM1 260319Z 16009KT 17/17 A2995 RMK A01 T01730173  RH  100%=      5-min Rain = 0
KAM1 260320Z 16010KT 17/17 A2995 RMK A01 T01730173  RH  100%=      5-min Rain = 0
KAM1 260321Z 16009KT 17/17 A2995 RMK A01 T01740174  RH  100%=      5-min Rain = 0
KAM1 260322Z 16009KT 17/18 A2995 RMK A01 T01740175  RH  100%=      5-min Rain = 0
KAM1 260323Z 16010KT 18/18 A2995 RMK A01 T01750175  RH  100%=      5-min Rain = 0
KAM1 260324Z 16009KT 18/18 A2995 RMK A01 T01750175  RH  100%=      5-min Rain = 0
KAM1 260325Z 16009KT 18/18 A2995 RMK A01 T01750175  RH  100%=      5-min Rain = 0
KAM1 260326Z 15009KT 18/18 A2995 RMK A01 T01750175  RH  100%=      5-min Rain = 0
KAM1 260327Z 15009KT 18/18 A2995 RMK A01 T01750175  RH  100%=      5-min Rain = 0
KAM1 260328Z 15008KT 18/18 A2995 RMK A01 T01750176  RH  100%=      5-min Rain = 0
KAM1 260329Z 15008KT 18/18 A2995 RMK A01 T01750175  RH  100%=      5-min Rain = 0
KAM1 260330Z 15010KT 18/18 A2995 RMK A01 T01760176  RH  100%=      5-min Rain = 0
KAM1 260331Z 15009KT 18/18 A2995 RMK A01 T01760176  RH  100%=      5-min Rain = 0
KAM1 260332Z 15009KT 18/18 A2995 RMK A01 T01760176  RH  100%=      5-min Rain = 0
KAM1 260333Z 16009KT 18/18 A2995 RMK A01 T01760176  RH  100%=      5-min Rain = 0
KAM1 260334Z 15009KT 18/18 A2995 RMK A01 T01760176  RH  100%=      5-min Rain = 0
KAM1 260335Z 16009KT 18/18 A2995 RMK A01 T01760176  RH  100%=      5-min Rain = 0
KAM1 260336Z 15009KT 18/18 A2995 RMK A01 T01760176  RH  100%=      5-min Rain = 0
KAM1 260337Z 15009KT 18/18 A2995 RMK A01 T01760176  RH  100%=      5-min Rain = 0
KAM1 260338Z 15008KT 18/18 A2995 RMK A01 T01760176  RH  100%=      5-min Rain = 0
KAM1 260339Z 15008KT 18/18 A2996 RMK A01 T01760177  RH  100%=      5-min Rain = 0
KAM1 260340Z 15008KT 18/18 A2996 RMK A01 T01760176  RH  100%=      5-min Rain = 0
KAM1 260341Z 15009KT 18/18 A2996 RMK A01 T01760176  RH  100%=      5-min Rain = 0
KAM1 260342Z 15009KT 18/18 A2996 RMK A01 T01760176  RH  100%=      5-min Rain = 0
KAM1 260343Z 15008KT 18/18 A2996 RMK A01 T01760177  RH  100%=      5-min Rain = 0
KAM1 260344Z 15010G15KT 18/18 A2996 RMK A01 T01770177  RH  100%=      5-min Rain = 0
KAM1 260345Z 15010KT 18/18 A2996 RMK A01 T01770177  RH  100%=      5-min Rain = 0
KAM1 260346Z 15009KT 18/18 A2996 RMK A01 T01790179  RH  100%=      5-min Rain = 0
KAM1 260347Z 15009KT 18/18 A2996 RMK A01 T01790180  RH  100%=      5-min Rain = 0
KAM1 260348Z 15010KT 18/18 A2996 RMK A01 T01800180  RH  100%=      5-min Rain = 0
KAM1 260349Z 15010KT 18/18 A2996 RMK A01 T01800180  RH  100%=      5-min Rain = 0
KAM1 260350Z 15010KT 18/18 A2996 RMK A01 T01810181  RH  100%=      5-min Rain = 0
KAM1 260351Z 15010KT 18/18 A2996 RMK A01 T01810181  RH  100%=      5-min Rain = 0
KAM1 260352Z 15010KT 18/18 A2996 RMK A01 T01810181  RH  100%=      5-min Rain = 0
KAM1 260353Z 15011KT 18/18 A2996 RMK A01 T01810181  RH  100%=      5-min Rain = 0
KAM1 260354Z 16010KT 18/18 A2996 RMK A01 T01820182  RH  100%=      5-min Rain = 0
KAM1 260355Z 15008KT 18/18 A2996 RMK A01 T01820182  RH  100%=      5-min Rain = 0
KAM1 260356Z 16011KT 18/18 A2996 RMK A01 T01820182  RH  100%=      5-min Rain = 0
KAM1 260357Z 15009KT 18/18 A2996 RMK A01 T01820182  RH  100%=      5-min Rain = 0
KAM1 260358Z 16010KT 18/18 A2996 RMK A01 T01820182  RH  100%=      5-min Rain = 0
KAM1 260359Z 16010KT 18/18 A2996 RMK A01 T01820182  RH  100%=      5-min Rain = 0
KAM1 260400Z 16011KT 18/18 A2996 RMK A01 T01820182  RH  100%=      5-min Rain = 0
KAM1 260401Z 16011KT 18/18 A2996 RMK A01 T01830183  RH  100%=      5-min Rain = 0
KAM1 260402Z 16010KT 18/18 A2996 RMK A01 T01830183  RH  100%=      5-min Rain = 0
KAM1 260403Z 16010KT 18/18 A2996 RMK A01 T01830183  RH  100%=      5-min Rain = 0
KAM1 260404Z 16010KT 18/18 A2996 RMK A01 T01830183  RH  100%=      5-min Rain = 0
KAM1 260405Z 16010KT 18/18 A2997 RMK A01 T01830183  RH  100%=      5-min Rain = 0
KAM1 260406Z 16011KT 18/18 A2997 RMK A01 T01820183  RH  100%=      5-min Rain = 0
KAM1 260407Z 16010KT 18/18 A2997 RMK A01 T01830183  RH  100%=      5-min Rain = 0
KAM1 260408Z 16009KT 18/18 A2997 RMK A01 T01830183  RH  100%=      5-min Rain = 0
KAM1 260409Z 16009KT 18/18 A2997 RMK A01 T01830183  RH  100%=      5-min Rain = 0
KAM1 260410Z 16009KT 18/18 A2997 RMK A01 T01820182  RH  100%=      5-min Rain = 0
KAM1 260411Z 16009KT 18/18 A2997 RMK A01 T01820182  RH  100%=      5-min Rain = 0
KAM1 260412Z 16009KT 18/18 A2997 RMK A01 T01820182  RH  100%=      5-min Rain = 0
KAM1 260413Z 16010KT 18/18 A2997 RMK A01 T01810181  RH  100%=      5-min Rain = 0
KAM1 260414Z 16010KT 18/18 A2997 RMK A01 T01810181  RH  100%=      5-min Rain = 0
KAM1 260415Z 16010KT 18/18 A2997 RMK A01 T01810181  RH  100%=      5-min Rain = 0
KAM1 260416Z 16010KT 18/18 A2997 RMK A01 T01820182  RH  100%=      5-min Rain = 0
KAM1 260417Z 15009KT 18/18 A2997 RMK A01 T01830183  RH  100%=      5-min Rain = 0
KAM1 260418Z 16010KT 18/18 A2997 RMK A01 T01830183  RH  100%=      5-min Rain = 0
KAM1 260419Z 16011KT 18/18 A2997 RMK A01 T01830183  RH  100%=      5-min Rain = 0
KAM1 260420Z 16010G15KT 18/18 A2997 RMK A01 T01830183  RH  100%=      5-min Rain = 0
KAM1 260421Z 16010KT 18/18 A2997 RMK A01 T01830183  RH  100%=      5-min Rain = 0
KAM1 260422Z 16009KT 18/18 A2997 RMK A01 T01830183  RH  100%=      5-min Rain = 0
KAM1 260423Z 16010KT 18/18 A2997 RMK A01 T01830183  RH  100%=      5-min Rain = 0
KAM1 260424Z 16009KT 18/18 A2998 RMK A01 T01830183  RH  100%=      5-min Rain = 0
KAM1 260425Z 16010KT 18/18 A2998 RMK A01 T01830183  RH  100%=      5-min Rain = 0
KAM1 260426Z 15010KT 18/18 A2997 RMK A01 T01830183  RH  100%=      5-min Rain = 0
KAM1 260427Z 15010KT 18/18 A2997 RMK A01 T01830183  RH  100%=      5-min Rain = 0
KAM1 260428Z 15011KT 18/18 A2997 RMK A01 T01830183  RH  100%=      5-min Rain = 0
KAM1 260429Z 15010KT 18/18 A2997 RMK A01 T01830183  RH  100%=      5-min Rain = 0
KAM1 260430Z 15011KT 18/18 A2997 RMK A01 T01830183  RH  100%=      5-min Rain = 0
KAM1 260431Z 15010KT 18/18 A2997 RMK A01 T01830183  RH  100%=      5-min Rain = 0
KAM1 260432Z 15011KT 18/18 A2998 RMK A01 T01830183  RH  100%=      5-min Rain = 0
KAM1 260433Z 15010KT 18/18 A2998 RMK A01 T01830184  RH  100%=      5-min Rain = 0
KAM1 260434Z 15010KT 18/18 A2998 RMK A01 T01840184  RH  100%=      5-min Rain = 0
KAM1 260435Z 15009KT 18/19 A2998 RMK A01 T01840185  RH  100%=      5-min Rain = 0
KAM1 260436Z 15010KT 18/19 A2998 RMK A01 T01840185  RH  100%=      5-min Rain = 0
KAM1 260437Z 15009KT 18/19 A2997 RMK A01 T01840185  RH  100%=      5-min Rain = 0
KAM1 260438Z 14010KT 18/18 A2997 RMK A01 T01840184  RH  100%=      5-min Rain = 0
KAM1 260439Z 15011KT 18/18 A2997 RMK A01 T01840184  RH  100%=      5-min Rain = 0
KAM1 260440Z 15009KT 18/18 A2997 RMK A01 T01830184  RH  100%=      5-min Rain = 0
KAM1 260441Z 15009KT 18/18 A2997 RMK A01 T01840184  RH  100%=      5-min Rain = 0
KAM1 260442Z 15008KT 18/18 A2998 RMK A01 T01840184  RH  100%=      5-min Rain = 0
KAM1 260443Z 15009KT 18/18 A2998 RMK A01 T01840184  RH  100%=      5-min Rain = 0
KAM1 260444Z 15009KT 18/18 A2998 RMK A01 T01840184  RH  100%=      5-min Rain = 0
KAM1 260445Z 16009KT 18/18 A2998 RMK A01 T01840184  RH  100%=      5-min Rain = 0
KAM1 260446Z 15010KT 18/18 A2998 RMK A01 T01840184  RH  100%=      5-min Rain = 0
KAM1 260447Z 16011KT 18/18 A2998 RMK A01 T01840184  RH  100%=      5-min Rain = 0
KAM1 260448Z 15010KT 19/19 A2998 RMK A01 T01850185  RH  100%=      5-min Rain = 0
KAM1 260449Z 15011KT 19/19 A2998 RMK A01 T01850185  RH  100%=      5-min Rain = 0
KAM1 260450Z 15009KT 19/19 A2998 RMK A01 T01850185  RH  100%=      5-min Rain = 0
KAM1 260451Z 15008KT 19/19 A2998 RMK A01 T01850185  RH  100%=      5-min Rain = 0
KAM1 260452Z 16009KT 19/19 A2998 RMK A01 T01850185  RH  100%=      5-min Rain = 0
KAM1 260453Z 16009KT 19/19 A2998 RMK A01 T01850185  RH  100%=      5-min Rain = 0
KAM1 260454Z 16007KT 19/19 A2998 RMK A01 T01850185  RH  100%=      5-min Rain = 0
KAM1 260455Z 16008KT 19/19 A2998 RMK A01 T01850185  RH  100%=      5-min Rain = 0
KAM1 260456Z 16010KT 18/18 A2998 RMK A01 T01840184  RH  100%=      5-min Rain = 0
KAM1 260457Z 16010KT 18/18 A2998 RMK A01 T01840184  RH  100%=      5-min Rain = 0
KAM1 260458Z 15010KT 19/19 A2998 RMK A01 T01850185  RH  100%=      5-min Rain = 0
KAM1 260459Z 16009KT 19/19 A2998 RMK A01 T01850185  RH  100%=      5-min Rain = 0

Page generated in 0.0329 seconds.